ECMWFFLT1_500_spd_000.txt.gz
Wind_Speed
35 36 36 36 36 36 37 38 39 41 42 42 41 42 43 44 44 46 48 51 52 53 53 53 52 52 51 50 50 49 50 53 51 53 58 57 53 53 53 54 54 53 52 51 48 48 47 46 47 48 49 48 48 47 46 44 43 43 43 42 42 42 41
36 36 36 37 38 38 37 38 39 41 42 43 44 43 44 45 45 46 48 50 52 54 55 55 54 54 54 52 51 51 51 52 50 49 56 60 55 51 52 53 54 56 56 54 52 50 48 47 47 47 47 48 49 48 47 46 45 44 44 43 42 42 41
37 37 38 38 39 39 40 40 40 41 42 43 44 45 45 46 47 47 48 49 51 53 55 56 57 56 56 55 53 52 52 52 49 46 50 59 59 53 51 53 54 55 57 57 55 53 51 50 49 48 46 46 47 48 48 48 47 46 45 44 43 43 41
39 40 40 40 39 40 41 42 42 42 43 43 44 46 46 47 48 48 49 49 50 52 54 56 57 58 58 58 56 55 54 52 51 47 45 53 59 56 51 52 53 54 56 59 57 56 55 54 52 50 48 46 46 47 48 48 48 48 47 46 45 44 43
41 41 42 42 41 41 42 43 43 44 44 44 45 46 47 47 48 49 50 50 50 51 53 55 56 58 59 60 59 58 56 54 53 51 46 47 56 60 54 49 50 52 53 58 61 60 58 56 55 54 51 49 48 47 46 47 48 48 48 47 47 46 45
42 42 43 44 44 43 43 44 45 45 45 46 46 46 47 47 48 48 49 51 51 51 52 53 55 57 58 60 61 61 60 57 55 54 51 48 50 57 58 51 51 52 50 52 58 61 61 59 58 57 55 52 51 48 46 45 46 47 47 48 48 47 46
43 43 44 44 45 45 45 45 46 46 47 47 47 47 47 48 48 48 48 49 51 51 52 52 53 55 56 59 61 63 62 61 58 56 55 51 47 49 53 51 51 54 53 52 53 57 61 61 60 59 57 56 54 51 48 45 44 45 45 45 46 47 45
43 43 44 44 45 45 46 46 47 47 47 48 48 48 48 48 48 48 49 49 50 50 51 52 53 53 54 56 59 62 64 64 62 60 58 56 52 50 50 51 51 52 53 54 54 55 57 61 62 61 59 59 58 54 52 49 46 44 43 43 44 45 44
43 44 44 44 44 45 46 46 47 48 48 48 48 48 48 48 48 48 49 49 50 50 51 51 52 53 54 54 56 59 63 65 65 64 62 60 59 56 55 55 56 53 51 53 55 55 55 58 62 63 62 61 60 57 54 53 50 47 45 43 42 43 43
43 44 44 44 43 44 45 45 46 47 48 48 48 48 48 48 48 49 49 50 50 51 51 51 52 53 54 54 54 56 59 64 66 66 66 64 62 62 60 60 59 56 54 54 54 54 54 56 59 62 64 63 62 59 57 55 52 49 47 45 42 42 43
42 43 43 43 43 42 43 44 44 45 46 47 47 47 48 48 48 49 49 50 50 51 52 52 52 52 53 54 54 54 56 60 64 66 68 68 67 65 64 63 62 60 58 58 57 53 51 53 56 58 59 62 63 61 59 58 53 51 50 47 44 43 43
43 43 43 43 43 42 42 42 43 43 43 44 45 46 47 47 48 49 49 49 50 51 51 52 53 53 53 53 54 54 54 56 60 64 67 69 70 69 67 65 64 63 60 60 60 58 53 51 52 54 53 56 62 62 60 59 56 55 53 48 46 45 44
44 44 44 43 43 43 43 42 42 42 43 43 44 45 45 47 48 48 49 49 49 50 51 52 53 53 54 53 53 54 55 55 57 60 64 67 69 70 70 68 66 64 63 61 61 62 60 54 51 52 50 50 57 62 61 60 58 58 56 52 50 48 46
45 45 45 45 44 44 44 43 43 43 43 44 45 45 46 47 48 49 49 50 50 50 51 51 52 54 54 54 53 53 54 55 56 58 61 64 66 69 70 70 70 68 65 64 63 61 62 60 54 52 51 50 54 59 62 61 59 59 57 56 56 52 48
45 45 46 46 45 45 45 45 44 44 44 44 46 47 48 49 49 50 51 51 51 52 52 52 52 53 54 54 55 54 54 55 57 57 59 60 63 66 67 69 71 71 68 65 64 62 62 63 59 55 53 52 53 55 58 61 61 60 59 58 56 52 52
46 46 47 47 46 46 46 46 46 45 45 45 46 48 50 51 51 52 53 53 53 53 53 54 54 54 54 54 55 55 55 55 56 58 59 59 60 62 65 66 68 70 71 68 67 65 63 62 59 56 54 54 55 54 54 57 60 61 63 62 58 55 57
48 48 48 48 47 47 47 47 47 47 47 47 47 48 50 52 53 54 55 55 56 56 56 56 56 55 55 55 55 55 56 55 56 57 59 59 59 60 62 64 65 67 69 70 69 67 65 62 60 59 57 57 58 57 54 53 54 58 63 63 61 61 60
50 50 49 49 48 48 48 48 48 48 48 48 49 49 50 52 54 55 56 57 57 57 57 57 57 57 57 56 56 56 56 57 56 57 59 60 60 60 60 61 62 64 66 68 70 69 67 64 62 62 61 60 60 60 57 54 52 56 61 61 60 62 62
50 50 50 49 48 48 48 49 49 49 49 49 49 50 50 51 53 55 57 58 59 59 58 58 58 58 58 58 57 57 57 58 58 58 59 59 61 61 60 60 61 62 63 65 68 69 69 67 66 65 64 61 61 61 60 57 55 57 59 57 57 59 61
48 49 49 48 48 48 49 50 50 50 51 51 51 51 51 52 53 54 56 58 60 60 60 59 59 59 59 59 58 58 58 58 59 59 59 59 61 62 62 61 61 61 62 62 64 67 69 69 67 67 66 63 61 60 59 57 55 56 58 56 55 57 57
48 48 48 48 48 48 49 50 51 51 51 51 51 52 52 52 53 54 55 57 60 61 61 60 60 60 59 59 59 59 59 59 59 60 59 59 61 62 62 63 62 61 60 60 61 64 67 69 68 67 67 65 62 60 60 58 55 57 58 56 56 57 55
48 48 48 48 49 49 50 51 51 52 52 52 52 52 52 53 53 54 55 57 59 61 62 62 61 61 61 60 60 60 59 60 59 59 60 59 60 62 63 64 64 63 61 60 60 61 64 67 68 67 65 64 63 61 62 60 58 59 58 54 55 57 54
48 48 49 49 50 50 51 52 52 53 53 53 53 53 54 54 54 54 55 56 58 60 62 63 62 63 62 62 61 61 60 60 59 59 59 59 60 61 62 64 64 64 63 62 60 60 62 65 68 68 65 64 64 63 63 61 60 61 59 52 52 54 51
49 49 50 50 50 51 52 52 52 52 52 53 54 54 54 55 55 56 56 56 58 59 62 63 63 63 63 63 62 61 61 60 59 58 58 58 59 60 62 64 64 65 66 64 62 61 61 63 65 67 67 65 65 65 64 62 61 63 59 51 48 49 49
49 50 51 51 51 51 52 52 52 52 52 52 53 54 55 55 55 56 57 57 58 59 61 62 63 63 64 64 63 62 61 60 59 57 56 56 58 59 62 64 64 65 66 66 64 62 62 62 63 66 67 66 65 66 65 62 61 63 61 53 47 48 48
49 50 50 51 52 52 52 52 52 52 52 53 53 54 55 55 56 56 57 58 58 59 60 61 62 63 63 64 63 62 61 60 59 57 55 55 55 57 60 63 64 65 66 67 66 64 63 63 63 64 66 65 65 65 64 62 62 63 61 54 50 51 50
48 48 49 49 50 51 51 51 52 52 53 53 53 54 54 55 55 56 57 58 58 59 59 60 61 62 63 64 64 63 61 60 59 57 55 54 54 54 57 60 62 64 66 67 67 66 65 64 63 64 65 65 65 64 63 61 61 61 59 56 53 54 53
46 47 47 47 47 48 48 49 50 52 53 53 54 54 54 54 55 55 56 57 57 58 58 59 60 61 62 63 64 63 61 60 59 57 54 53 53 53 54 57 58 61 64 65 66 67 67 66 65 65 65 65 66 66 65 63 61 60 60 57 56 56 55
45 46 46 46 46 47 48 49 51 52 53 53 54 54 54 54 54 54 55 56 56 55 55 56 58 60 61 63 64 63 61 60 59 57 54 53 53 53 53 54 54 56 59 62 65 67 68 68 67 66 66 66 68 69 68 65 62 62 61 59 58 59 57
45 45 45 45 46 48 49 50 51 52 52 52 53 54 54 53 52 52 52 53 53 52 52 53 56 57 59 61 62 62 61 60 59 58 56 54 53 53 53 52 51 52 55 57 60 64 67 69 69 68 67 68 70 70 69 66 64 62 61 61 61 60 57
44 44 44 45 47 48 49 49 49 50 50 51 51 51 50 49 47 46 47 48 48 48 49 50 52 54 56 59 61 60 60 59 59 58 56 54 53 52 52 50 49 50 51 52 56 61 66 68 70 69 68 68 69 70 69 67 65 64 62 61 61 60 58
42 42 44 45 46 46 46 46 46 46 47 47 46 45 45 43 41 40 41 42 43 44 45 46 47 49 52 55 57 57 57 57 57 56 55 53 51 51 51 49 48 48 48 49 52 57 63 68 70 69 68 67 68 69 67 66 66 65 62 60 59 60 62
41 42 44 43 43 43 43 42 42 42 43 44 44 44 44 42 39 38 39 39 38 39 40 41 42 44 47 50 52 53 54 54 53 53 52 51 50 51 50 49 48 47 48 48 48 52 59 67 69 69 69 67 67 67 66 65 66 65 62 60 60 60 64
41 42 42 40 39 39 39 39 40 41 43 44 44 45 44 42 40 38 38 37 36 35 36 36 38 40 43 45 46 47 48 49 48 48 48 48 49 50 49 49 48 48 47 46 46 49 56 65 69 69 69 67 65 65 65 65 65 64 62 61 60 59 61
41 40 39 38 37 36 38 39 41 42 43 42 42 43 42 40 39 38 37 37 35 34 33 34 35 37 39 39 39 38 39 40 41 43 45 47 49 49 48 47 45 44 43 45 46 48 54 62 69 70 70 68 65 65 65 64 65 64 63 61 59 58 60
39 38 36 35 34 35 37 40 41 43 43 41 39 38 36 35 35 35 36 37 36 35 35 35 37 38 38 37 36 34 33 34 37 40 44 47 48 47 45 43 41 41 43 46 48 49 52 60 68 70 70 69 66 64 66 66 65 64 63 61 58 58 57
36 35 34 33 33 35 37 38 40 42 42 38 35 33 31 29 30 31 33 36 38 38 38 38 40 41 41 40 38 36 35 35 36 40 44 46 46 45 43 41 41 44 47 49 50 50 51 58 66 70 70 69 66 65 66 67 66 64 63 61 57 56 53

ECMWFFLT1_500_spd_003.txt.gz
Wind_Speed
30 30 30 30 31 31 31 32 33 34 35 35 35 35 36 37 38 40 41 42 43 44 46 46 47 48 48 48 49 49 49 49 49 48 47 48 49 48 49 53 54 52 50 50 52 53 51 50 48 48 48 49 50 49 49 49 47 48 49 47 45 47 47
31 31 31 31 31 32 32 32 33 34 35 36 37 37 37 37 38 40 41 43 44 45 46 47 48 49 50 51 52 52 52 51 52 51 51 51 51 49 49 53 55 55 52 51 54 56 55 54 52 50 49 50 50 50 51 50 48 49 50 48 46 47 48
32 32 32 33 33 33 34 34 34 34 35 36 37 38 38 39 39 40 42 43 44 45 46 47 49 50 51 52 53 54 54 54 53 54 54 54 53 50 49 51 55 57 55 53 54 55 56 56 55 54 53 52 50 49 50 49 49 50 51 49 47 48 48
33 34 34 34 35 34 35 35 35 36 36 36 37 38 39 40 40 41 42 43 45 46 47 48 49 50 52 54 55 56 56 57 56 56 56 56 55 53 50 50 53 57 57 56 54 54 56 58 58 57 56 56 53 49 49 48 48 49 51 50 49 48 49
34 35 36 36 36 37 37 36 37 37 37 38 38 39 40 40 41 42 43 44 45 46 47 48 49 50 51 53 55 57 58 58 58 58 58 58 57 55 53 50 52 56 57 56 55 54 56 59 59 58 58 59 58 54 52 50 49 49 49 50 50 49 50
35 36 37 38 38 39 40 39 39 39 39 39 39 40 41 42 42 43 44 44 45 47 48 48 49 51 52 52 54 57 59 59 60 60 60 59 59 57 55 53 53 56 57 56 56 55 55 57 58 58 58 59 60 59 57 55 53 51 50 50 50 49 49
36 37 38 39 39 40 41 42 42 42 41 41 41 41 42 43 43 44 44 45 46 46 48 49 50 50 52 53 53 55 58 59 60 62 62 61 60 60 58 57 56 55 56 56 58 58 55 52 54 56 55 58 61 61 61 60 56 54 53 51 50 49 48
38 39 40 40 41 42 42 43 44 45 44 43 43 43 43 43 44 45 45 45 46 47 48 49 50 50 51 53 53 54 56 58 59 62 63 63 62 62 61 60 59 57 55 54 55 59 60 53 50 52 54 57 59 60 63 63 59 56 55 53 52 51 48
39 40 41 42 43 43 44 44 45 45 46 45 45 44 44 44 44 45 46 46 47 47 48 49 50 51 51 52 53 54 54 56 57 59 61 63 63 64 63 62 61 59 58 55 52 55 61 60 52 49 52 57 57 57 62 65 63 59 56 55 55 53 50
41 42 43 43 44 44 45 45 45 45 46 46 46 46 45 45 45 45 46 47 47 47 48 49 50 51 52 52 52 53 54 54 56 57 59 61 62 64 65 64 64 62 60 58 55 53 58 63 61 53 49 52 54 54 58 63 64 62 59 57 57 55 52
43 44 45 45 45 45 45 45 45 45 45 46 46 47 46 46 46 46 46 47 47 48 48 49 50 51 52 53 53 53 53 53 55 57 57 58 60 62 64 64 65 65 62 61 59 57 58 61 64 61 51 47 48 49 50 54 58 60 61 61 58 56 54
44 45 45 46 46 46 46 46 45 45 45 46 46 47 47 46 46 46 46 46 47 47 48 49 49 50 51 53 53 53 53 53 54 56 56 57 58 60 62 63 63 65 65 64 62 61 61 59 59 61 54 47 45 45 45 48 51 54 59 63 61 57 55
45 46 46 46 47 47 47 46 46 45 45 46 46 47 47 47 46 46 46 46 46 47 48 48 49 49 50 51 52 52 53 54 55 55 56 56 57 58 60 61 62 63 65 66 64 62 64 61 55 55 53 49 47 47 47 49 51 51 53 61 64 60 58
45 46 46 47 48 48 47 47 46 46 45 46 47 48 48 49 48 47 46 46 47 47 47 48 48 49 49 49 51 51 51 52 54 55 55 56 56 57 59 60 61 62 64 66 65 64 65 64 59 56 55 53 52 52 51 50 52 52 50 55 61 63 62
45 46 47 47 48 48 47 47 47 46 46 46 47 48 49 50 50 49 48 47 47 48 48 48 48 49 49 49 49 50 50 50 52 53 54 54 55 55 57 59 60 61 63 64 65 65 66 66 64 62 59 58 57 56 55 52 51 49 47 50 56 60 62
46 46 47 48 48 48 48 48 47 47 47 47 48 48 49 50 51 51 50 49 49 49 49 49 49 49 49 49 49 49 49 50 50 51 52 53 54 55 56 57 59 60 61 63 63 65 66 67 68 67 64 63 61 59 59 57 54 50 47 49 53 55 56
46 47 47 48 48 48 48 49 49 49 48 48 48 49 49 50 51 52 51 51 51 51 50 50 50 50 50 50 50 50 50 50 50 51 51 52 53 54 55 56 57 59 60 62 63 64 65 66 69 69 67 66 65 63 60 60 60 57 53 54 54 52 51
45 46 47 48 48 48 49 49 50 50 50 50 50 50 51 51 52 53 53 53 53 53 53 52 52 52 52 52 52 51 51 51 51 51 51 52 52 53 55 56 56 57 59 61 62 63 64 65 67 69 69 68 68 66 64 61 61 59 58 59 57 55 52
45 45 46 47 47 48 48 49 50 50 50 51 51 51 52 52 53 53 54 54 54 54 54 54 54 54 54 55 54 54 53 53 53 52 52 52 53 53 55 56 57 56 57 60 60 62 63 64 65 65 66 68 69 67 65 63 60 58 59 61 59 58 57
44 44 45 46 46 47 47 48 49 49 50 50 51 52 52 52 53 53 54 55 55 56 55 55 55 55 55 56 56 56 56 55 54 54 53 53 54 54 55 56 57 56 57 58 59 60 62 64 64 63 63 66 67 68 68 66 62 60 60 60 60 60 59
44 44 45 45 45 46 47 47 48 48 49 50 50 51 52 52 53 53 54 54 55 56 56 56 56 56 56 56 57 57 57 57 57 56 55 54 54 55 55 56 57 57 57 57 58 60 61 63 64 63 61 62 64 67 70 68 64 62 61 59 61 63 61
44 45 45 45 46 47 47 48 48 48 49 50 50 51 51 52 53 53 54 55 55 56 56 56 56 56 56 56 56 57 57 57 58 58 57 56 56 56 56 57 58 58 57 56 57 59 60 62 63 63 62 61 62 65 68 67 65 65 63 60 62 64 63
45 45 45 46 47 47 48 48 49 49 50 50 51 51 51 52 52 53 54 55 56 56 57 56 56 56 57 57 57 58 58 58 58 59 59 58 57 57 57 58 59 59 58 57 56 58 59 61 63 63 62 61 61 62 65 64 65 66 65 63 64 66 64
45 45 45 46 47 47 47 48 48 49 50 50 51 52 52 52 53 53 54 54 55 56 56 57 57 57 58 58 59 59 59 59 59 60 60 59 59 58 58 59 59 60 60 58 57 57 58 60 63 63 63 61 60 61 62 62 63 64 62 62 65 66 63
44 45 46 46 47 47 48 48 48 49 49 50 51 52 52 53 53 54 55 55 55 56 56 56 57 57 58 59 60 61 61 61 61 61 61 60 60 60 60 60 60 61 61 59 58 57 57 59 61 63 64 62 61 62 62 62 63 62 60 60 64 66 64
45 46 47 47 48 48 48 48 48 49 50 50 51 52 52 53 54 55 55 56 56 56 56 56 57 57 58 59 61 62 63 63 63 62 62 62 62 61 61 61 61 61 61 60 59 58 57 57 59 63 65 64 63 63 63 63 64 63 62 63 65 65 66
46 46 46 47 47 47 48 48 49 49 50 51 52 52 53 53 54 55 55 56 57 57 57 57 58 58 58 59 61 63 64 64 64 63 63 63 63 63 62 62 62 61 61 60 59 58 57 57 58 61 65 66 65 64 63 64 65 64 62 64 64 63 64
45 46 46 46 47 47 48 49 49 50 50 51 52 52 53 53 54 54 55 55 56 56 57 58 59 59 60 60 61 63 64 65 66 65 64 63 63 63 63 63 62 62 61 60 59 57 57 57 57 59 63 66 66 65 64 64 66 66 64 64 63 61 62
46 46 46 47 47 48 48 48 49 50 50 50 51 51 52 53 53 54 54 55 56 56 56 58 59 60 60 61 62 63 65 66 66 66 65 64 63 63 63 63 63 62 62 60 58 57 56 57 58 59 61 65 66 67 67 66 65 66 65 64 62 61 60
48 48 47 48 48 48 48 48 48 49 49 49 49 50 51 52 53 53 54 55 55 56 56 57 59 60 61 62 62 63 64 66 66 66 66 64 62 62 62 63 62 63 62 59 57 56 56 57 58 58 59 63 66 68 67 66 65 65 64 62 63 63 62
48 48 47 47 48 48 48 47 47 47 47 47 49 50 51 52 52 53 54 55 56 56 56 57 58 59 60 62 62 63 64 66 65 64 64 63 61 60 61 61 62 63 61 58 56 56 55 56 58 57 58 61 64 66 66 65 65 65 63 61 62 63 63
46 46 46 46 46 46 45 45 45 46 47 48 50 51 52 52 52 52 53 54 54 54 54 53 54 55 56 57 59 61 63 64 63 62 62 61 59 58 59 60 61 62 60 57 56 55 55 56 57 57 57 58 61 64 65 65 65 65 63 62 62 63 63
45 45 45 45 44 43 43 43 44 46 48 49 50 50 51 51 51 50 50 50 50 50 50 49 48 49 50 51 54 58 61 61 60 59 59 58 56 55 56 57 59 60 59 56 55 55 55 55 56 57 56 54 56 61 64 65 66 66 64 63 63 63 64
45 44 44 42 41 41 42 43 45 47 47 47 47 47 47 48 47 46 47 48 49 49 49 47 46 46 46 47 49 53 56 56 55 54 53 52 51 51 53 55 57 59 58 55 54 55 54 54 56 56 54 52 54 58 62 65 67 67 66 66 64 62 64
43 42 41 40 39 40 41 44 45 45 43 43 43 44 45 45 45 44 46 47 47 47 46 45 45 45 45 44 45 47 49 50 50 48 47 47 48 49 52 54 56 58 57 54 54 54 54 55 56 56 54 53 53 55 59 64 68 68 67 67 65 63 65
40 39 38 37 38 40 42 43 42 40 40 40 41 43 44 45 45 45 46 45 44 43 42 40 41 42 42 41 40 41 44 47 48 46 45 45 46 48 50 53 55 56 55 54 55 55 55 56 57 56 55 54 52 52 55 62 67 69 68 68 66 64 64
37 36 36 37 39 40 41 40 38 38 38 39 40 42 44 45 45 46 44 40 37 37 35 34 35 37 38 38 37 37 40 43 44 44 45 45 46 48 50 52 54 55 55 55 56 56 56 57 58 57 55 54 51 50 53 60 65 68 68 68 66 64 64

ECMWFFLT1_500_spd_006.txt.gz
Wind_Speed
25 26 26 26 26 27 28 28 28 29 29 30 29 29 29 28 29 30 31 32 33 34 35 38 39 40 41 42 43 44 43 43 44 44 44 43 45 47 47 50 53 51 46 45 45 46 47 46 45 45 45 44 43 41 41 42 44 45 46 45 46 47 47
26 26 26 27 27 28 28 28 29 29 30 30 30 31 30 30 30 30 31 33 34 34 35 37 38 40 42 43 43 44 45 45 45 45 45 45 45 45 46 48 50 51 51 49 47 46 48 51 50 48 47 47 47 45 43 43 44 45 45 45 46 47 47
27 27 27 27 28 28 28 28 29 29 29 30 31 31 31 32 31 31 32 33 34 35 36 37 38 40 42 43 44 45 46 46 47 47 46 46 47 46 47 48 49 51 51 51 50 48 47 49 52 53 51 50 49 48 47 46 46 46 46 45 45 46 46
28 28 27 28 28 28 28 28 28 29 29 30 30 31 32 33 33 33 33 33 34 36 37 38 38 40 42 43 45 46 47 47 47 48 48 48 48 48 49 49 49 49 49 50 51 52 51 48 49 52 53 53 52 50 49 49 49 49 48 47 46 45 45
28 28 28 28 28 29 29 29 29 29 30 30 30 30 31 32 33 34 34 35 35 36 37 39 40 40 41 43 46 47 47 48 48 49 50 50 50 51 51 51 51 50 50 51 49 51 53 50 48 49 50 54 55 52 50 50 51 52 51 50 48 46 45
29 29 29 29 29 30 30 31 31 31 31 31 31 31 31 32 33 34 35 36 36 37 38 39 41 42 42 43 46 48 48 48 49 50 51 51 52 53 53 53 54 53 53 54 52 52 54 53 51 49 48 52 56 54 51 50 50 52 53 53 51 50 48
30 30 31 30 31 31 32 33 33 34 34 34 33 33 33 33 34 34 35 36 37 38 39 40 41 42 43 44 45 47 49 50 51 51 52 53 53 54 56 56 57 57 57 57 56 56 55 55 54 51 49 51 56 55 54 54 53 52 53 54 54 55 53
31 32 32 32 32 33 33 34 35 36 36 36 36 36 36 36 36 36 36 36 37 38 39 41 42 43 44 45 45 47 49 51 52 52 53 54 54 55 57 58 59 60 60 60 59 58 58 57 56 54 52 52 53 55 54 54 55 57 56 55 56 57 57
33 33 34 34 34 35 35 36 36 37 38 38 38 39 39 39 39 39 39 38 38 39 39 41 42 44 45 46 47 47 48 50 52 53 54 54 55 57 57 58 60 60 60 61 61 61 60 59 58 56 55 53 52 54 54 52 53 56 57 57 57 57 57
34 35 36 36 36 37 37 38 38 38 39 39 39 40 40 41 41 41 41 41 41 40 40 41 42 43 45 46 48 48 49 50 52 53 54 55 55 57 58 59 60 61 61 61 62 62 61 60 59 58 57 56 54 53 54 55 54 54 53 54 57 58 57
36 37 38 38 39 39 40 40 41 41 41 40 40 41 41 42 42 43 43 43 43 42 42 42 42 43 44 46 48 49 50 51 52 53 55 55 55 56 58 59 61 61 61 61 61 62 62 62 61 60 59 58 57 55 54 55 57 57 54 51 53 58 59
39 40 40 41 41 42 42 42 42 43 43 42 42 42 43 43 44 44 44 44 44 44 44 43 43 43 43 45 47 48 49 51 52 54 55 56 56 57 57 58 60 61 62 62 61 61 62 62 62 62 61 60 59 57 56 55 56 57 58 54 50 54 58
40 41 41 42 43 43 44 44 44 44 44 44 44 44 44 44 45 45 45 45 44 44 44 44 44 44 43 44 46 47 48 50 51 53 55 56 57 57 58 58 58 59 60 62 61 61 61 62 62 62 62 62 60 59 58 58 57 55 56 55 51 52 55
41 41 42 43 44 45 45 46 46 46 46 46 46 46 46 45 45 45 46 46 45 45 45 45 45 45 45 45 45 46 47 49 50 51 53 55 57 58 58 58 58 58 59 60 60 60 60 61 61 61 62 63 62 61 60 60 60 56 53 52 50 51 52
42 43 43 45 46 47 47 47 48 48 48 48 48 47 47 46 46 46 46 47 47 46 46 46 46 47 47 46 46 46 47 48 49 50 51 52 55 57 59 59 59 58 59 59 59 59 60 60 60 60 61 62 61 61 61 61 61 59 55 51 51 53 53
43 44 45 46 47 47 48 49 49 49 49 48 49 48 48 47 47 47 47 48 49 49 48 47 47 48 48 48 48 48 48 48 49 50 50 51 52 55 57 59 59 59 59 60 59 59 59 59 60 60 60 61 61 61 60 61 62 62 59 55 53 56 55
44 45 45 46 46 47 47 48 48 48 48 48 48 49 48 48 48 48 48 48 49 50 50 49 49 49 49 50 50 50 49 49 50 50 51 51 51 52 55 57 59 59 59 60 60 59 59 59 60 60 60 60 61 60 58 59 62 62 62 59 57 57 55
44 44 44 45 45 46 46 46 47 47 48 48 49 49 49 49 49 48 48 49 50 50 51 51 51 51 51 51 51 51 51 51 51 51 51 51 52 52 53 54 56 57 59 60 60 60 59 58 59 60 60 60 61 60 58 59 61 62 63 62 60 59 56
43 43 43 43 44 44 45 46 46 47 48 49 49 49 49 49 49 49 49 50 50 51 52 52 53 53 53 53 53 53 53 53 53 53 53 52 52 52 52 53 53 55 56 58 58 59 59 59 58 59 60 60 61 61 60 58 58 60 63 62 61 61 59
41 41 41 41 41 42 43 44 46 47 49 49 49 50 50 50 50 50 50 50 50 51 52 52 53 54 54 54 54 55 55 55 54 54 54 54 54 53 53 53 53 53 54 56 57 58 58 58 58 58 59 60 61 61 61 59 57 59 61 62 62 62 61
38 38 39 40 40 41 43 44 46 48 49 50 50 50 50 50 51 51 51 51 51 51 52 52 53 54 54 55 55 56 56 56 56 56 56 56 56 55 55 54 54 54 54 54 56 57 58 58 58 59 59 59 60 61 61 60 58 58 59 60 62 62 62
38 39 40 41 42 43 44 46 47 49 50 50 50 51 51 51 51 52 52 52 52 52 52 52 52 53 54 55 56 57 57 57 58 57 57 57 57 57 57 56 55 55 55 55 56 57 57 57 58 59 59 59 60 61 61 60 60 59 58 58 60 62 64
39 40 40 41 42 44 45 46 47 48 49 49 49 50 51 51 51 51 51 52 52 52 52 52 52 53 54 55 56 57 58 58 58 58 58 58 58 58 59 58 57 56 56 56 56 57 57 57 58 58 58 59 60 60 60 60 60 59 59 59 60 63 64
40 40 41 42 43 43 44 45 46 47 47 47 47 48 48 49 50 50 50 50 51 50 50 51 51 52 53 54 56 57 58 58 58 59 59 59 59 59 59 60 60 58 57 57 56 57 57 57 58 58 58 59 60 61 60 60 60 60 59 59 60 62 60
41 41 42 42 43 44 45 46 46 47 47 46 46 46 47 48 48 49 49 50 50 50 49 50 50 51 52 54 55 56 57 58 59 59 59 60 60 60 60 60 61 60 59 58 57 57 57 58 58 59 59 59 59 60 61 61 60 59 58 57 58 60 58
41 42 43 43 44 45 46 47 47 47 47 46 46 46 47 48 48 49 50 50 50 50 50 50 51 52 52 53 54 56 56 57 58 59 59 60 60 61 61 61 61 61 61 60 59 58 57 58 59 60 60 60 59 59 60 61 60 59 58 57 56 57 58
42 43 44 45 46 47 48 48 47 47 47 46 46 47 48 48 49 49 50 51 51 51 52 52 53 53 53 54 55 56 56 57 58 58 59 60 60 61 61 61 61 61 61 61 60 59 58 58 59 60 61 61 60 59 59 60 60 60 60 60 59 57 57
43 44 46 47 48 49 49 49 48 48 47 47 48 49 49 49 50 50 51 51 52 52 53 54 54 54 55 55 56 57 57 57 58 58 59 60 61 61 61 61 61 61 62 62 61 61 61 60 59 60 61 62 61 59 59 60 60 60 59 60 61 60 58
44 46 47 48 49 49 49 49 49 48 48 48 49 50 50 50 51 51 52 52 52 52 53 54 54 55 56 56 57 58 58 59 59 58 59 60 61 61 61 61 61 61 61 62 61 62 63 63 61 60 60 62 61 60 60 60 60 60 60 60 60 61 61
46 47 48 49 49 49 49 49 48 48 48 49 50 50 51 51 52 52 52 52 52 52 52 53 54 54 55 56 57 58 59 60 60 60 59 60 60 62 62 61 61 61 60 60 61 62 63 65 64 62 60 61 62 61 61 60 59 60 60 60 59 60 61
47 48 48 49 49 49 48 48 48 48 49 50 50 51 51 52 51 51 50 50 51 51 51 52 53 54 55 56 57 58 59 61 61 61 61 61 61 62 62 62 62 62 61 60 60 61 62 64 66 63 61 61 62 62 61 60 59 59 59 59 59 59 60
47 48 48 48 48 48 49 49 49 50 50 51 51 51 51 50 49 48 49 50 51 52 52 53 54 54 54 55 56 57 59 60 60 60 61 61 62 62 63 63 63 63 63 62 61 61 62 64 66 65 63 62 62 62 62 60 59 58 58 58 58 58 59
46 46 47 47 48 49 49 50 50 51 51 51 50 49 48 47 47 48 49 51 52 53 53 52 52 52 51 52 53 54 56 57 57 58 59 60 60 61 62 63 63 63 64 64 63 63 63 64 65 65 65 63 61 61 62 60 58 57 57 57 57 58 60
45 45 46 48 48 49 50 50 50 50 50 49 48 47 47 47 48 49 50 50 50 49 49 49 48 48 49 50 50 52 54 54 53 54 55 56 57 57 59 60 61 62 63 63 63 63 63 63 64 65 65 62 59 60 61 59 57 56 56 55 55 57 60
45 45 47 48 49 50 50 50 49 48 48 47 46 46 47 48 48 48 46 45 45 45 46 46 47 47 49 49 50 51 52 52 51 52 52 52 53 53 54 55 57 59 60 61 61 60 60 62 63 63 63 61 59 60 61 59 56 56 55 53 53 55 59
44 45 47 48 49 49 49 48 47 46 45 45 45 46 47 46 45 44 42 42 43 45 46 46 47 48 49 48 47 48 48 48 48 48 48 48 48 48 50 51 52 55 57 58 59 58 59 60 61 60 60 60 59 60 61 58 56 54 54 52 50 52 56
44 46 47 48 48 47 46 45 44 43 43 44 45 45 44 43 42 41 40 41 42 45 46 47 48 48 46 43 42 41 41 42 43 44 43 43 42 43 44 46 47 49 52 54 56 57 58 59 58 58 59 60 60 60 60 57 54 53 52 49 47 49 53

ECMWFFLT1_500_spd_009.txt.gz
Wind_Speed
25 25 25 25 25 25 25 25 26 26 26 25 25 24 24 24 24 25 25 26 26 26 26 27 28 29 30 31 32 33 34 35 36 37 37 39 41 40 39 41 41 40 45 49 49 47 47 46 44 44 44 43 41 40 39 40 39 39 39 39 38 38 39
24 25 25 25 25 26 26 26 26 27 27 27 27 26 25 25 25 25 26 26 27 27 27 27 28 29 30 31 32 33 33 34 36 37 38 39 41 40 40 42 41 41 42 45 46 45 46 46 44 43 44 45 44 43 42 43 42 42 41 40 38 38 39
25 25 25 26 26 26 26 27 27 27 28 28 28 28 27 27 26 26 26 27 27 28 28 28 28 29 30 31 32 33 34 35 36 37 38 39 41 41 41 42 42 43 43 44 45 43 43 43 42 42 44 46 46 46 46 46 46 45 44 43 41 40 40
25 25 25 26 27 27 27 28 28 28 29 29 29 29 29 29 28 28 27 27 28 29 29 29 29 30 31 31 33 34 34 35 36 37 38 39 41 41 42 43 44 44 45 45 46 46 45 44 41 40 43 47 48 46 47 48 49 49 49 46 44 43 43
26 26 26 27 28 28 28 28 29 29 30 30 30 30 30 30 29 29 29 29 29 29 30 31 31 31 32 33 34 34 35 36 37 38 39 39 41 42 43 43 44 46 46 46 46 47 46 45 45 42 41 45 50 49 48 49 49 50 51 51 48 46 46
26 27 27 28 28 29 29 29 30 30 30 30 31 31 30 30 30 30 30 30 30 30 31 31 32 33 33 34 35 36 37 37 38 39 39 40 41 42 43 44 45 46 47 47 47 48 47 46 48 47 43 44 48 50 49 50 50 50 50 52 52 51 49
27 27 27 27 28 29 29 29 30 30 30 30 30 30 30 30 30 30 30 31 31 32 32 32 33 34 34 35 36 38 38 39 40 40 41 41 42 43 44 45 45 46 47 48 48 49 49 49 50 50 48 48 49 49 49 49 50 51 50 49 51 52 52
27 27 28 28 28 29 29 29 30 30 31 31 31 31 31 31 31 31 32 32 32 33 33 34 34 35 36 36 37 38 40 40 41 42 43 43 44 44 45 46 47 47 48 48 49 50 50 51 52 52 52 52 52 51 50 49 49 50 50 49 49 50 51
28 29 29 29 30 31 31 31 31 32 32 32 33 33 33 34 34 35 35 35 34 34 35 35 35 36 37 38 38 39 40 41 42 43 44 45 46 46 47 47 48 48 49 49 50 50 51 53 54 54 54 54 54 54 54 54 53 51 50 50 50 50 50
29 30 30 30 31 32 32 32 32 33 33 33 34 34 34 35 35 36 37 37 37 37 37 37 37 37 37 38 39 40 41 42 43 44 45 46 47 48 48 49 49 49 50 51 52 52 52 53 54 55 56 56 56 57 57 57 56 54 53 53 53 51 51
31 31 31 31 32 32 33 33 34 34 34 35 35 35 36 36 37 38 38 39 39 39 39 39 39 39 39 39 39 40 41 43 44 45 46 47 48 49 50 51 51 51 51 52 53 54 54 54 54 55 56 57 58 60 60 59 58 56 55 55 55 54 53
33 33 33 33 33 34 35 35 35 36 36 37 37 38 38 38 39 40 40 40 41 41 41 41 41 41 41 41 41 41 42 43 44 46 47 48 49 50 51 52 53 53 53 53 54 55 55 56 56 56 56 57 59 61 61 62 61 58 56 56 57 56 56
34 35 35 35 36 36 36 36 37 37 38 38 39 39 39 40 41 41 42 42 43 43 44 44 44 43 43 43 43 43 43 43 44 46 48 49 50 51 52 53 54 54 55 55 55 56 56 57 57 58 58 57 58 60 61 63 62 58 56 57 59 59 59
34 35 35 36 36 36 37 37 38 38 39 39 40 40 41 41 42 43 44 44 45 46 46 46 47 46 46 45 45 46 46 45 45 45 47 49 51 52 52 53 54 55 56 56 56 57 57 57 57 58 59 59 59 59 60 62 63 59 56 57 60 60 60
32 33 34 35 35 36 37 38 38 39 40 41 42 42 43 43 44 45 45 46 47 47 48 48 49 49 49 48 47 47 48 48 47 47 47 48 50 52 53 53 54 55 57 57 57 57 57 58 58 58 58 59 59 59 60 61 62 60 55 55 59 61 61
32 32 34 34 36 37 38 39 40 41 42 42 43 44 45 45 46 46 47 47 48 48 49 49 50 50 50 50 49 48 49 49 49 49 49 48 50 52 53 54 54 54 56 57 58 58 58 58 58 59 58 59 59 59 60 60 61 61 57 53 56 60 61
33 33 34 35 37 38 39 40 41 42 43 43 44 45 46 46 47 47 47 48 48 49 49 49 50 50 51 51 50 50 49 50 50 51 51 50 50 51 53 54 54 54 55 56 57 58 58 58 58 59 59 59 60 59 59 60 61 61 59 54 54 58 60
33 35 36 37 38 39 39 40 41 42 43 44 45 45 46 46 46 46 47 47 48 48 49 49 50 50 51 51 51 51 50 50 51 52 52 52 52 52 53 54 55 55 55 55 56 56 57 57 58 59 59 59 60 60 60 61 60 61 60 57 55 57 59
35 36 37 38 39 39 39 39 40 41 42 43 44 44 45 45 45 45 46 46 47 48 49 49 49 50 50 51 52 52 51 51 51 52 52 53 53 53 54 55 56 56 56 55 56 56 56 56 57 58 59 59 60 60 60 61 61 60 60 59 57 57 58
36 37 38 38 39 39 39 40 40 40 41 42 43 43 44 44 45 45 46 47 48 49 49 49 50 50 50 51 52 53 53 52 52 52 53 53 54 54 54 55 56 57 57 57 56 56 56 56 57 57 58 58 59 60 61 61 61 61 60 60 59 58 57
37 37 38 38 39 39 39 40 40 40 41 41 42 42 43 43 44 45 47 48 49 50 50 51 51 51 51 52 53 53 54 54 53 53 53 53 54 55 56 56 57 57 58 59 58 57 56 56 57 56 57 57 58 59 60 60 61 61 61 61 60 59 57
38 38 38 38 38 39 39 39 39 40 40 41 41 41 41 42 43 44 46 47 48 49 49 50 51 51 52 52 53 54 55 55 55 55 55 54 54 55 56 57 57 58 59 60 60 59 58 57 57 57 56 57 57 57 58 59 60 61 62 61 60 59 58
39 39 38 38 38 38 38 38 39 40 41 41 41 40 41 42 44 45 46 46 47 47 48 48 49 50 51 51 52 54 54 55 56 56 56 56 56 56 56 57 58 58 59 60 61 61 61 59 58 58 57 57 57 57 57 58 59 60 61 61 60 59 59
39 39 38 38 38 38 38 39 39 40 41 41 41 40 41 42 44 46 47 47 47 48 48 49 49 50 50 51 52 53 53 54 55 56 56 57 57 57 57 57 58 59 59 60 62 62 63 62 61 60 58 57 57 58 58 58 58 59 59 59 59 59 60
38 38 38 38 38 38 38 39 39 40 41 41 40 40 42 44 46 47 48 49 49 49 49 50 51 51 51 52 53 53 53 54 54 55 56 56 57 57 57 58 58 59 59 60 62 63 63 63 63 62 61 59 58 58 58 58 58 58 58 59 58 59 60
38 38 38 39 39 39 39 39 40 41 41 40 40 41 44 47 49 50 49 49 50 50 50 50 51 52 52 53 54 54 55 55 54 55 55 56 56 57 57 57 58 58 59 60 61 63 64 64 64 64 63 62 60 59 59 59 59 58 58 58 58 58 58
38 38 39 40 39 39 39 40 41 41 41 40 40 43 46 48 50 51 50 50 50 50 51 51 51 52 53 53 54 55 56 56 55 55 56 56 57 57 57 58 58 58 59 60 61 62 64 65 65 64 64 63 62 60 60 60 60 59 58 58 58 57 56
38 39 40 40 40 40 40 41 41 41 40 40 42 45 48 50 52 52 51 51 51 51 51 51 51 52 52 53 54 55 56 56 56 56 56 57 57 58 58 59 59 59 59 59 60 62 63 64 65 65 65 64 63 62 61 60 60 60 59 59 58 56 55
39 40 41 42 42 41 42 42 42 41 41 42 44 47 49 51 53 53 52 51 51 51 51 51 52 52 53 54 54 55 56 56 57 57 57 57 58 59 59 60 61 61 61 60 60 61 62 64 65 65 65 65 64 63 62 61 60 60 60 59 58 57 56
41 41 42 43 42 42 42 42 42 42 43 44 47 49 51 53 55 55 53 52 51 51 51 52 53 54 54 54 54 54 55 55 56 56 57 57 58 59 60 61 62 62 62 62 61 61 62 64 64 65 65 65 65 64 62 61 61 61 61 60 59 58 57
41 42 43 43 43 43 43 43 43 43 45 47 49 51 53 55 57 56 53 52 52 52 52 53 53 53 53 53 53 53 53 54 55 55 56 56 57 58 59 60 61 62 63 63 63 63 63 63 64 64 65 66 66 65 62 62 62 62 62 62 60 59 59
40 42 43 43 43 43 43 43 43 45 47 50 52 53 55 58 58 56 53 52 53 53 53 53 52 52 51 51 52 53 53 54 54 54 55 55 55 56 58 59 60 61 61 62 63 63 63 64 64 64 65 66 66 64 63 62 63 62 62 63 62 60 59
41 41 42 43 43 43 43 44 45 47 49 51 53 56 58 59 57 54 53 54 54 54 52 51 51 51 52 53 54 54 55 55 54 54 54 54 54 54 56 57 58 59 59 60 61 62 63 64 64 65 65 66 65 64 64 64 63 63 63 63 63 61 60
41 41 42 43 43 43 44 45 46 48 50 53 56 58 58 57 55 53 54 54 54 52 51 51 51 53 54 55 55 55 55 53 53 52 51 51 51 52 52 54 55 56 56 58 59 61 62 63 64 65 66 65 64 65 67 66 64 63 63 63 63 62 61
41 42 42 42 43 44 45 45 47 49 52 55 56 56 56 54 54 54 54 54 52 51 51 52 53 55 55 56 55 54 52 50 50 51 50 50 50 50 51 52 53 53 54 55 57 58 60 61 63 64 65 65 66 67 68 67 65 64 63 62 62 63 62
41 41 41 42 43 44 44 46 48 50 52 54 53 53 53 54 54 54 53 51 50 51 53 54 55 56 55 54 53 51 50 50 50 51 51 50 50 50 51 52 53 53 54 54 55 55 56 58 60 61 63 65 67 68 69 68 66 64 62 61 62 62 61
39 39 40 40 41 43 44 46 48 49 51 51 51 52 53 54 54 52 50 49 51 53 55 55 55 54 53 51 50 50 50 51 51 52 52 50 48 48 48 49 49 50 51 51 52 53 54 54 56 57 60 63 65 68 70 68 66 65 63 61 61 61 59

ECMWFFLT1_500_spd_015.txt.gz
Wind_Speed
23 24 25 26 26 25 25 24 23 23 22 22 22 23 23 24 24 25 26 26 26 26 26 26 27 27 28 28 29 29 30 30 31 32 33 33 33 33 32 31 32 32 33 35 37 40 42 44 45 44 44 44 44 43 42 42 41 41 41 41 41 41 41
22 24 25 26 26 26 25 25 24 24 23 22 22 22 23 23 24 24 25 25 25 25 25 26 26 27 27 27 28 28 28 29 30 31 32 33 34 34 34 34 34 34 34 35 36 38 40 41 43 44 45 45 46 46 46 46 45 43 42 41 40 40 39
22 23 25 26 27 27 26 26 26 25 25 23 22 22 22 23 23 24 24 25 25 25 25 25 26 26 27 27 27 27 27 28 28 29 30 32 33 33 33 34 36 37 37 37 37 38 39 40 40 41 44 45 45 46 48 49 49 47 45 43 42 41 40
22 23 24 26 27 27 26 26 26 26 26 25 24 23 22 22 23 23 24 24 25 25 26 26 25 26 26 26 27 27 27 27 28 28 29 30 31 32 32 33 34 36 37 38 39 39 41 41 41 40 42 44 44 44 46 49 50 50 49 47 45 44 44
22 23 24 25 27 27 27 26 26 26 26 26 25 24 23 23 23 23 24 24 25 26 26 26 26 26 26 26 26 27 27 27 28 28 29 29 30 31 31 31 32 33 35 36 37 38 40 41 41 40 42 44 44 43 43 45 48 50 50 49 48 46 46
23 23 24 25 26 27 28 27 26 25 25 26 26 25 25 24 24 24 24 24 25 25 26 27 27 27 27 27 27 27 27 28 28 29 29 29 30 30 30 30 31 31 32 33 34 35 37 38 39 39 40 42 43 43 43 44 45 47 49 50 49 49 49
23 23 24 25 26 27 27 27 27 26 25 25 25 25 26 26 25 25 25 25 25 26 26 27 27 28 28 29 29 28 28 28 28 29 29 30 30 30 30 31 31 32 32 32 33 33 35 36 38 38 38 39 40 40 43 45 45 46 46 47 48 49 48
24 24 25 25 26 26 27 27 27 27 26 25 25 25 25 26 26 26 26 26 26 26 26 27 27 28 29 30 30 30 30 30 30 30 30 30 30 31 31 31 32 32 33 34 34 34 35 35 37 37 37 38 38 38 40 43 45 46 46 46 47 47 46
25 25 25 25 26 26 27 27 27 27 26 25 25 24 25 25 26 26 26 26 26 26 26 27 27 27 28 29 30 31 31 32 32 32 32 31 31 32 32 32 33 33 34 34 35 36 36 37 37 38 39 39 39 38 39 41 42 44 45 46 47 47 46
25 25 25 26 26 26 26 27 27 27 27 26 25 25 25 26 26 26 26 26 27 27 27 27 28 28 29 29 30 31 32 33 33 34 34 34 34 34 34 34 35 35 35 36 36 37 38 39 39 40 41 41 41 40 40 41 41 41 43 45 46 47 47
26 26 26 26 27 27 27 27 27 27 27 28 28 27 27 27 28 28 28 28 29 29 29 30 30 30 31 31 31 32 32 33 34 35 36 36 37 38 38 38 38 38 38 38 39 39 40 40 41 42 42 43 43 43 42 42 41 40 42 43 44 45 47
29 28 28 28 28 28 28 28 28 28 29 29 30 30 30 30 30 30 30 30 31 31 31 32 33 33 33 34 34 34 34 35 35 36 37 38 39 40 40 41 42 42 42 42 42 42 42 42 43 44 44 44 45 45 45 45 43 41 42 43 44 45 46
27 28 29 29 30 30 30 30 30 30 30 31 31 32 32 32 32 32 32 32 32 33 33 34 34 35 35 36 36 37 37 37 37 38 39 39 40 40 41 42 43 44 45 45 45 44 44 44 44 45 46 46 46 46 47 47 46 43 43 44 45 45 46
23 24 25 26 28 29 30 31 32 32 33 33 33 33 33 34 34 34 34 34 35 35 35 36 36 36 37 38 38 38 39 39 39 40 40 41 41 42 43 43 44 45 46 46 47 47 47 47 47 47 47 47 48 48 48 48 48 46 44 45 46 46 47
24 23 23 23 24 25 26 27 28 29 31 32 33 34 34 35 35 36 36 37 37 37 36 36 37 37 38 38 39 39 40 41 41 42 42 43 43 44 44 45 46 46 47 47 48 49 50 50 50 49 49 49 49 50 50 50 49 48 46 46 47 48 48
26 26 25 24 24 24 24 24 25 25 26 28 29 30 32 33 33 34 35 35 35 35 35 36 37 37 38 39 40 40 41 41 42 43 44 44 45 46 46 47 48 48 49 49 50 51 51 52 52 52 52 52 52 52 52 52 52 51 48 47 48 49 49
29 29 28 27 27 27 26 26 26 26 27 28 29 30 30 31 31 31 32 32 33 34 35 36 37 38 39 40 41 42 42 43 43 44 44 45 46 47 47 48 49 50 51 51 52 52 53 53 54 55 55 55 55 54 54 55 55 54 52 50 49 50 50
33 32 31 31 31 31 30 29 29 29 30 31 31 31 32 32 33 33 34 34 35 36 37 37 37 37 38 39 40 41 42 43 44 45 45 46 46 47 47 48 49 50 51 52 53 54 54 55 55 56 57 57 58 58 57 57 57 57 56 54 52 52 52
33 34 34 35 37 37 36 35 34 34 34 34 34 34 34 35 36 36 37 37 38 38 38 38 37 37 37 37 37 37 38 39 40 41 42 43 44 45 46 46 47 48 50 51 52 53 55 56 56 57 57 58 59 60 60 60 60 60 59 58 56 54 54
36 38 39 40 40 41 41 41 41 40 39 38 38 38 38 38 38 39 40 40 40 40 40 39 38 37 36 36 35 35 35 36 37 37 37 38 39 40 42 43 44 46 48 49 51 52 53 55 56 57 58 59 60 61 61 61 62 62 62 61 60 58 57
41 42 43 43 43 45 46 46 46 45 43 41 40 40 40 40 40 41 42 42 42 42 42 41 40 38 37 36 36 36 36 36 36 36 36 36 37 39 40 41 43 44 46 47 49 50 51 53 54 56 57 59 60 61 62 62 63 63 63 63 62 61 59
43 42 43 45 48 51 51 50 50 50 47 44 43 43 43 42 42 43 44 45 45 45 45 44 42 40 39 38 37 37 37 37 37 37 37 38 39 40 41 42 43 44 46 47 48 49 51 52 54 55 56 58 59 60 62 63 64 64 65 65 64 63 62
47 47 47 49 52 55 55 54 52 50 47 44 43 43 43 43 44 45 46 47 47 47 47 45 44 42 41 40 39 39 38 38 39 39 39 41 42 43 44 45 46 47 47 48 49 51 51 53 54 55 56 57 58 60 61 62 63 65 65 66 65 65 65
51 51 51 50 51 55 57 53 47 45 45 44 44 44 45 45 46 48 51 51 50 50 49 46 44 43 43 42 41 41 40 40 41 41 42 44 45 46 47 48 49 50 50 51 52 53 54 55 55 56 57 57 58 60 61 61 62 64 65 66 66 66 66
53 53 53 51 50 53 57 55 51 50 50 50 49 49 48 47 47 50 53 54 54 52 49 47 45 44 43 43 43 42 42 43 43 44 46 47 47 48 49 50 51 52 53 53 54 55 56 58 58 58 58 59 59 60 61 62 62 63 64 66 67 67 66
54 55 55 54 53 54 57 58 56 52 50 50 50 50 50 49 49 49 50 52 55 53 49 47 47 45 44 44 44 44 45 46 47 48 49 49 50 51 51 52 53 54 55 56 56 58 59 60 61 62 62 61 60 61 61 62 62 63 64 65 66 66 66
57 58 58 57 56 56 56 57 57 55 54 52 51 52 52 51 50 48 46 48 52 52 48 47 47 46 45 45 46 47 48 49 50 50 51 51 52 53 53 55 56 56 57 58 60 61 62 63 63 64 64 64 63 62 62 63 63 63 64 64 65 65 65
59 60 61 61 59 59 59 60 62 61 59 55 52 53 53 51 51 49 46 47 49 48 46 46 46 46 46 47 48 50 50 51 52 53 53 53 54 55 56 57 58 59 60 62 64 66 67 67 67 66 66 65 65 64 64 64 64 64 64 65 65 64 64
62 63 65 64 63 62 62 63 63 61 58 56 53 53 53 52 52 50 47 47 46 44 44 45 46 46 47 49 51 52 52 53 53 54 55 56 57 58 59 60 61 62 64 65 68 70 71 70 69 67 66 65 65 65 65 65 65 65 65 65 65 65 64
62 63 63 61 60 59 60 62 62 60 60 59 56 55 55 54 55 54 50 45 43 42 43 44 45 46 48 50 52 53 53 54 54 56 57 58 60 60 61 63 64 65 66 68 71 72 72 71 69 67 66 66 65 65 65 65 66 66 66 66 65 65 65
60 60 60 58 56 56 56 56 57 58 59 59 58 57 54 51 51 50 45 40 40 41 43 44 45 47 48 51 52 53 54 55 56 57 59 60 61 62 63 65 67 68 70 71 72 71 70 69 67 66 66 65 65 64 64 64 65 66 67 67 66 65 65
58 58 58 57 56 55 54 52 52 53 54 56 57 56 51 47 44 41 38 38 41 42 43 45 46 48 49 51 53 54 55 56 57 59 60 61 62 63 64 67 69 71 73 73 71 69 67 66 65 65 65 64 63 62 62 62 64 65 66 67 66 66 65
58 58 57 55 56 57 55 52 51 49 49 51 53 52 48 45 42 41 40 44 46 44 44 46 47 49 51 53 54 56 57 58 59 60 61 62 63 64 67 70 72 73 72 70 68 66 64 63 63 63 63 63 62 61 61 62 63 64 65 66 66 66 65
54 53 53 54 56 57 55 53 52 52 51 52 54 52 47 44 43 45 46 50 49 47 47 47 48 51 52 53 55 56 57 59 60 62 63 64 66 68 70 72 72 70 68 66 64 63 62 61 62 62 62 62 62 62 62 63 63 64 64 64 64 65 65
46 47 49 53 54 53 51 49 48 48 49 50 52 52 50 47 47 48 50 52 51 49 49 49 50 51 51 53 55 57 59 61 63 65 66 67 69 70 71 70 68 65 64 63 62 62 61 62 63 63 62 63 63 64 64 64 64 63 63 63 63 63 63
41 43 45 48 49 48 47 45 44 44 45 47 49 51 51 50 51 52 52 52 50 49 49 49 50 50 52 54 56 59 61 64 66 68 69 69 70 69 67 65 64 63 63 63 63 62 62 62 62 62 62 63 63 64 64 64 63 62 61 61 61 61 60
38 40 41 43 44 45 45 45 44 45 45 45 46 48 49 49 51 52 51 49 48 48 49 49 49 51 53 56 58 61 64 65 66 68 68 68 67 66 64 64 64 64 63 61 60 58 57 56 56 56 56 58 59 60 60 59 59 58 57 56 57 56 56

ECMWFFLT1_500_spd_021.txt.gz
Wind_Speed
22 22 23 23 24 24 25 26 26 26 26 26 25 24 23 23 23 23 24 24 24 24 24 24 23 24 25 25 26 27 29 30 30 30 30 30 29 27 26 25 24 23 22 21 22 25 29 31 33 35 36 40 43 44 44 44 43 42 42 42 42 42 42
21 21 21 22 23 23 24 25 26 26 26 26 25 23 22 22 22 22 23 24 24 24 23 23 23 23 23 24 25 25 26 27 28 29 30 31 31 30 29 28 28 27 26 25 24 24 26 29 32 32 33 35 38 41 42 42 43 42 42 41 41 41 41
21 21 21 22 22 22 23 24 25 26 25 25 24 23 22 21 20 21 21 22 23 23 23 22 22 22 22 23 25 25 25 25 26 26 27 29 30 30 30 30 30 30 29 29 28 27 26 27 29 31 33 34 35 38 38 39 41 41 41 41 41 42 42
21 21 21 21 22 22 22 23 24 25 25 24 23 22 21 20 19 19 20 21 21 22 22 21 21 20 20 21 23 24 24 24 24 25 25 26 27 28 29 29 30 30 31 31 30 30 30 29 29 29 31 32 34 36 37 39 40 40 40 40 40 41 42
19 19 20 21 21 21 22 22 23 23 24 24 23 22 21 20 19 19 19 19 20 21 21 21 20 19 19 20 21 23 23 23 23 24 24 25 25 26 26 27 28 28 30 30 30 30 31 32 32 32 32 31 31 32 34 36 38 39 40 41 41 41 41
18 18 18 19 19 20 20 21 21 22 23 23 23 22 21 20 19 19 19 19 20 20 20 20 20 19 19 18 19 21 22 23 23 23 23 23 24 24 25 25 26 27 28 28 29 30 30 31 32 33 34 34 33 33 33 34 34 35 36 38 40 41 41
19 18 18 18 18 18 19 19 20 21 22 22 23 22 21 21 20 19 19 19 19 20 20 21 20 20 19 18 18 19 20 21 22 22 22 22 22 23 23 23 24 25 26 27 27 28 28 29 30 31 33 34 35 35 36 37 36 36 36 37 38 39 39
20 20 19 19 18 18 18 18 19 20 21 22 22 22 21 21 20 19 19 19 19 20 20 20 21 21 20 19 19 18 19 20 21 21 22 22 22 22 22 23 23 24 24 25 26 27 27 28 28 29 30 31 32 34 36 37 39 39 40 40 40 40 40
21 20 20 20 20 20 19 19 19 20 20 21 22 22 22 21 20 19 19 19 19 19 20 20 20 21 20 20 19 19 18 19 20 21 22 22 23 23 23 23 24 24 24 25 25 26 27 27 28 28 28 28 29 30 32 34 36 38 39 41 41 42 42
20 20 19 19 20 20 20 20 20 20 21 22 22 22 22 22 21 20 19 19 19 19 19 20 20 20 20 20 20 19 19 19 19 20 21 22 22 23 23 24 24 25 25 26 26 26 27 28 29 29 30 30 29 28 29 30 31 33 35 37 39 40 41
19 19 19 19 19 20 20 21 21 21 22 22 23 23 23 23 22 22 21 20 20 20 19 19 19 19 19 19 20 20 20 20 20 20 21 21 22 23 23 24 25 25 26 27 27 27 28 28 29 30 30 31 31 30 30 29 29 30 32 34 36 37 38
20 20 19 19 19 20 21 21 22 22 22 23 24 24 24 24 24 23 23 23 22 21 21 21 20 20 20 20 20 21 21 22 22 22 22 23 23 24 25 25 26 27 28 28 29 29 30 30 30 31 31 31 32 31 31 30 29 30 32 33 34 36 36
21 20 20 20 20 21 21 22 22 22 22 23 24 24 25 25 25 25 25 25 25 24 24 23 22 22 21 21 22 22 23 24 24 24 25 25 25 26 26 27 28 28 29 30 31 31 32 32 32 33 33 33 33 33 33 33 31 31 33 34 34 35 36
23 22 21 21 22 23 23 22 23 22 22 22 22 22 23 24 25 26 27 27 27 27 26 26 25 24 23 23 23 24 24 25 26 26 27 27 27 28 28 29 29 30 30 31 32 33 33 34 34 35 35 35 36 36 36 36 34 34 35 37 36 36 37
26 25 24 24 24 25 24 24 23 22 22 21 21 20 21 21 22 24 26 27 29 29 29 29 28 26 25 24 24 24 24 25 26 27 28 29 30 30 31 31 31 32 32 33 33 34 35 35 36 36 37 37 38 38 38 38 37 36 37 39 40 39 39
29 28 27 26 25 26 27 26 25 24 23 23 22 21 21 20 21 22 23 25 26 28 28 28 28 27 26 25 24 24 24 25 26 27 28 28 29 30 31 32 33 33 34 35 35 36 36 37 37 38 38 39 39 40 40 40 40 39 38 39 41 42 42
33 32 31 30 28 28 28 28 27 26 26 25 25 24 23 23 23 23 23 22 23 25 26 26 25 26 26 26 26 25 25 26 26 27 28 28 29 30 30 31 32 34 35 36 37 37 38 38 38 39 40 40 41 41 42 42 42 41 39 39 40 42 43
35 35 34 33 32 31 30 30 30 29 29 30 29 28 27 26 26 26 26 25 24 24 25 25 25 26 27 28 28 28 28 29 29 30 30 30 30 30 31 31 32 33 34 35 36 37 38 38 39 40 40 41 42 42 42 43 43 43 41 38 37 39 41
35 36 36 34 32 32 32 32 32 32 31 31 32 32 32 31 30 29 29 29 27 27 27 28 28 28 29 30 31 32 32 33 34 34 34 34 33 32 32 32 32 32 33 33 34 35 36 37 37 38 39 40 40 41 41 41 41 41 40 37 34 34 36
35 36 37 36 35 34 34 33 34 33 33 33 34 36 36 35 33 33 32 32 32 32 32 33 32 32 32 33 33 34 35 36 36 37 37 37 37 36 35 34 33 33 33 33 33 34 34 35 35 36 36 37 37 37 36 36 36 37 36 35 32 31 32
38 38 38 38 38 38 36 36 36 36 35 35 36 37 39 39 38 37 37 36 36 36 36 36 37 36 36 37 37 36 37 38 38 38 39 39 39 39 39 38 37 36 35 34 34 34 35 35 35 35 35 35 34 34 34 33 34 35 35 34 33 32 32
41 41 40 40 40 41 40 39 39 39 39 38 37 38 41 42 42 40 40 40 40 40 39 38 38 39 38 37 37 37 38 40 41 40 39 39 39 39 40 40 39 39 38 37 36 36 36 36 37 37 36 36 35 34 35 35 35 36 37 37 37 36 35
44 44 43 43 43 43 43 43 43 43 43 42 42 43 43 43 43 42 41 41 42 43 42 39 39 39 39 38 38 37 37 38 39 39 39 39 39 40 41 41 42 42 43 42 40 38 38 39 39 39 39 39 39 38 38 38 39 39 40 40 41 41 41
46 46 46 46 45 45 45 46 47 47 47 46 46 47 48 48 48 48 47 47 47 47 46 44 42 41 40 41 41 41 40 39 39 40 40 42 43 44 44 44 44 45 45 46 44 43 42 41 41 42 42 42 42 42 42 42 42 42 43 44 44 45 46
50 49 50 50 49 49 49 49 50 50 51 51 50 51 51 52 52 53 54 54 53 53 52 50 49 47 46 46 46 45 44 44 43 43 45 46 46 46 47 47 47 47 47 47 47 47 46 45 44 44 44 44 44 44 45 44 45 45 45 46 47 48 49
54 53 53 54 54 54 53 53 53 53 54 54 55 55 54 54 54 54 55 56 56 56 55 53 52 52 51 51 50 48 47 47 48 48 50 50 47 46 47 48 48 48 48 48 48 49 48 48 47 47 46 46 46 46 47 47 47 48 48 49 50 51 52
56 56 56 56 56 56 56 55 55 56 56 56 57 57 57 57 56 56 56 57 57 56 55 54 53 52 52 52 52 51 50 51 52 53 53 52 49 47 48 49 49 49 49 49 49 50 50 50 50 49 48 48 48 48 48 48 49 51 52 53 54 55 56
56 56 57 57 56 56 56 56 55 56 56 57 57 57 57 57 57 57 57 57 58 57 56 55 54 54 53 53 53 52 51 51 53 54 53 52 53 53 52 52 51 51 51 50 51 53 53 53 52 50 49 49 49 50 50 50 52 53 55 56 57 58 59
56 56 56 56 56 56 56 56 56 56 56 56 56 56 56 57 57 57 57 57 57 57 56 56 56 56 55 55 54 54 53 52 53 54 54 54 56 57 56 54 54 53 53 52 52 53 55 55 54 53 52 51 52 52 53 54 54 56 57 59 61 62 62
56 56 56 56 56 57 57 57 57 57 57 58 58 58 58 58 58 58 58 57 56 56 57 56 56 55 54 54 53 53 52 51 51 52 53 54 55 57 57 57 57 57 56 55 53 54 55 55 55 55 54 54 55 55 56 56 58 59 61 62 63 63 63
56 57 57 57 57 57 58 58 58 58 58 59 59 59 59 59 59 59 58 56 55 55 55 54 54 54 53 53 53 53 52 50 49 49 50 51 53 54 56 57 58 59 59 58 56 54 54 55 55 56 57 57 58 58 59 60 61 62 64 64 64 65 65
56 57 57 57 57 57 57 57 57 58 58 58 59 59 59 60 59 58 57 56 55 54 54 54 55 55 54 52 51 49 48 47 47 47 48 49 50 51 53 55 56 57 58 58 58 56 55 56 56 56 57 58 59 59 60 62 63 64 65 65 66 66 65
56 56 56 56 56 56 56 56 56 56 56 57 57 58 59 59 59 58 58 56 56 55 53 53 52 52 50 49 47 46 47 48 48 49 50 50 50 51 51 52 54 55 56 57 58 59 58 58 58 58 58 59 59 60 62 64 65 66 67 67 67 67 67
56 55 56 56 56 56 56 56 56 55 55 56 56 57 58 58 58 58 58 57 56 54 50 48 49 48 47 46 47 48 48 49 49 50 50 51 51 51 52 54 55 56 57 58 59 61 61 62 62 62 62 62 62 63 64 66 67 68 68 68 68 69 71
56 56 56 57 57 57 57 57 57 57 57 57 58 57 57 58 58 58 58 58 57 55 51 50 51 50 48 49 49 48 47 47 48 49 49 50 51 53 54 56 57 59 60 61 62 63 63 64 65 65 64 63 63 65 67 68 69 69 69 70 72 74 77
55 56 56 57 58 58 59 59 59 60 60 60 60 59 59 59 60 60 59 59 59 57 55 56 57 56 55 53 50 47 46 47 47 48 49 51 52 54 56 57 59 60 61 62 63 64 65 66 66 66 65 65 67 68 69 69 69 71 73 75 78 79 79
55 56 57 58 58 59 60 60 60 61 61 61 60 59 59 58 58 58 58 58 57 55 54 54 55 55 53 50 48 48 48 48 48 49 50 52 53 55 56 57 58 59 59 59 60 61 63 64 65 66 67 68 69 69 69 70 72 75 77 78 77 75 73

ECMWFFLT1_500_spd_024.txt.gz
Wind_Speed
22 22 22 22 22 22 22 22 22 22 23 24 24 24 24 24 25 25 24 23 22 22 22 22 23 23 24 25 25 24 25 26 28 30 31 32 32 31 30 29 27 26 24 22 21 22 24 27 28 32 37 38 38 41 44 46 46 45 44 44 43 43 42
21 21 21 21 21 21 21 21 21 21 21 22 22 23 23 23 23 23 23 22 22 22 22 22 22 23 23 24 24 24 24 25 27 28 29 29 30 31 31 30 30 30 29 27 25 22 21 24 27 30 33 34 36 38 39 42 43 42 44 45 44 44 43
20 20 20 21 21 21 21 21 21 21 21 21 21 21 22 22 22 22 21 21 21 21 21 22 22 22 22 22 23 23 23 24 26 26 27 27 28 29 30 30 31 31 31 29 28 27 24 23 24 26 28 31 35 39 39 39 39 39 41 43 44 45 44
19 19 20 20 20 20 20 20 20 21 21 20 20 20 21 21 21 21 20 20 19 20 20 21 21 22 21 22 22 22 23 23 24 25 25 26 26 27 28 29 29 30 31 30 29 29 28 26 25 24 26 27 30 36 38 37 37 39 39 40 41 42 43
19 19 19 20 20 20 19 19 19 20 20 20 20 20 20 20 20 20 20 19 19 19 20 20 20 20 20 21 21 21 22 22 23 24 24 24 24 25 25 26 27 28 28 29 29 29 29 28 28 27 27 27 28 31 34 35 36 37 38 39 40 39 39
19 19 18 18 19 19 19 18 18 19 19 19 19 19 19 19 19 19 19 19 19 19 19 19 20 20 20 19 19 20 20 21 22 22 22 23 23 23 24 24 25 25 26 26 27 28 28 28 28 28 28 29 29 30 32 33 33 34 35 37 40 41 40
19 19 19 18 18 19 18 18 18 18 18 18 18 18 18 18 18 18 18 18 18 18 19 19 19 19 19 19 18 19 19 20 21 21 21 21 22 22 22 23 23 23 23 24 25 25 26 26 27 27 28 28 30 31 32 33 33 33 32 32 35 38 39
20 20 20 20 19 19 19 19 18 18 18 17 17 17 17 17 17 17 17 17 18 18 18 19 19 19 19 19 19 18 19 20 20 21 20 20 21 21 21 21 21 22 22 22 23 23 24 24 24 25 26 27 28 29 31 32 33 34 34 33 33 34 34
21 20 20 20 20 19 19 19 19 19 19 18 18 17 16 16 16 16 17 17 17 17 17 17 18 18 18 19 19 19 19 19 20 20 21 20 20 21 21 21 21 21 21 21 22 22 22 22 22 22 23 24 25 25 27 28 30 31 33 34 34 34 34
22 21 20 20 19 19 18 17 18 18 19 19 19 18 17 16 16 16 16 16 16 16 16 16 17 17 18 18 18 18 18 19 19 20 20 20 20 20 20 20 20 20 20 21 21 22 22 22 22 22 22 22 23 23 24 24 26 27 28 30 31 32 32
22 21 20 19 18 18 17 17 17 17 18 19 19 19 19 18 17 17 16 16 16 16 16 16 16 17 18 18 18 18 18 18 18 18 19 20 20 20 20 20 20 20 20 20 21 21 21 22 22 22 22 22 22 22 22 23 24 26 26 27 28 29 30
21 20 19 18 18 18 18 17 17 17 18 18 19 19 20 20 19 19 18 18 17 17 17 17 17 17 18 19 19 19 19 19 19 19 19 20 20 20 21 21 21 21 21 21 21 22 22 22 23 23 23 23 22 22 22 22 24 26 27 27 28 29 29
22 21 19 18 18 19 19 19 18 18 18 18 19 19 20 20 20 21 21 21 20 19 19 18 18 18 19 20 20 20 21 21 21 21 21 21 21 22 22 22 22 23 23 24 24 24 24 24 25 25 25 25 25 24 24 24 24 26 28 28 29 30 30
24 24 23 21 21 21 21 21 21 20 19 19 20 19 19 19 19 20 20 20 21 21 21 21 20 20 20 21 21 22 22 22 22 23 22 23 23 23 24 24 24 25 25 26 26 26 27 27 27 27 27 27 27 27 27 27 27 27 29 30 30 31 32
26 26 26 25 24 24 24 24 23 23 22 22 21 20 20 20 19 19 19 19 19 19 20 21 21 22 22 22 22 23 23 24 24 24 24 25 25 25 25 25 26 26 27 27 28 28 28 29 29 30 29 30 30 29 29 30 29 29 31 32 33 33 33
29 28 28 28 28 28 27 27 26 26 25 24 23 23 22 22 21 20 19 18 18 18 19 19 20 21 22 22 23 23 24 24 25 26 26 27 27 27 28 28 28 28 28 28 29 29 30 30 31 32 32 32 32 32 32 32 32 32 32 34 35 35 35
31 31 31 31 31 31 31 30 28 27 26 26 25 25 25 25 24 23 21 20 20 20 20 20 20 20 21 21 21 22 23 24 25 26 27 28 28 29 29 30 30 31 31 31 32 32 32 32 33 33 34 34 34 34 34 34 35 35 35 35 36 37 37
34 34 34 33 33 33 33 33 31 30 30 29 29 29 29 28 28 27 25 24 24 24 23 23 22 22 23 23 23 24 25 26 26 27 28 28 29 29 30 31 31 32 33 33 34 34 35 35 35 35 36 36 36 36 36 36 36 36 37 37 38 38 39
36 36 36 35 35 35 35 35 34 34 33 33 32 32 33 33 33 31 30 29 28 27 26 26 26 26 26 26 26 27 28 29 29 29 29 29 30 31 31 32 33 34 35 35 36 36 36 36 36 36 37 37 38 38 37 37 37 37 37 37 38 39 39
37 37 37 37 37 37 37 37 37 37 36 35 34 34 36 37 37 36 35 33 32 31 28 27 28 29 30 30 31 31 32 33 34 34 33 32 32 33 33 34 35 35 36 37 37 37 37 37 37 37 38 38 39 39 39 38 38 37 37 37 37 38 37
39 39 39 38 39 39 39 38 38 39 39 37 36 35 37 38 39 39 39 37 37 35 32 30 31 33 34 36 37 37 37 37 38 38 37 37 36 36 36 37 37 38 38 38 39 39 39 39 39 39 39 39 39 40 40 40 40 39 38 37 36 36 36
42 42 42 41 42 41 41 40 40 41 41 40 40 39 38 39 40 41 41 41 40 39 38 37 37 37 37 38 38 38 37 38 39 40 40 40 39 38 38 39 39 40 41 41 41 40 40 40 40 40 40 40 40 40 41 42 42 42 41 39 38 37 36
47 47 47 46 46 45 45 44 44 44 44 44 44 43 42 41 42 43 43 43 42 42 42 43 43 41 40 39 37 34 34 35 36 38 39 39 39 39 39 39 39 40 42 43 43 42 41 41 41 41 41 41 42 42 43 43 43 44 43 42 41 40 39
51 50 50 50 50 50 49 49 48 48 47 48 48 47 46 45 44 45 46 46 46 46 47 47 47 45 44 44 42 41 40 40 40 40 40 40 40 40 40 41 41 41 42 43 43 43 42 42 42 43 43 43 43 44 44 45 45 45 45 45 44 44 43
53 53 53 52 52 52 52 51 51 50 50 50 51 51 50 50 49 48 48 49 49 50 50 51 51 50 49 49 49 50 50 49 48 47 47 46 46 46 45 46 46 46 45 45 45 46 46 46 46 46 46 46 46 46 46 46 47 47 47 47 47 47 47
54 54 53 53 53 53 53 52 52 52 52 52 52 52 53 53 53 52 52 52 52 52 53 53 54 53 53 53 53 54 54 54 53 52 51 51 51 50 50 50 50 49 49 49 49 50 50 50 50 50 49 47 47 48 48 48 49 50 50 49 49 49 51
56 56 55 55 55 54 54 54 54 54 55 55 54 54 55 56 56 56 56 56 56 56 55 56 56 56 56 56 56 56 57 56 55 54 53 52 52 52 51 51 51 51 52 52 53 54 55 55 55 54 53 50 48 49 50 50 51 52 53 53 52 52 53
59 58 58 58 57 57 56 56 56 56 56 57 57 57 58 58 59 59 59 60 59 59 58 59 59 59 59 59 58 58 57 57 56 55 54 53 53 52 52 51 51 52 53 53 54 55 56 57 56 56 56 55 53 52 53 53 54 55 55 56 55 54 54
58 58 58 58 58 57 57 57 57 57 57 57 57 57 58 59 60 60 61 61 60 60 60 60 59 59 59 59 58 58 57 57 56 56 55 54 53 53 52 52 52 53 54 55 55 56 56 57 57 57 57 58 58 58 57 57 57 57 58 58 58 58 58
56 56 56 56 56 56 56 56 57 57 57 57 57 57 57 58 58 59 59 59 59 59 59 59 58 58 58 57 57 57 57 57 56 56 55 55 53 52 51 51 51 52 53 55 56 56 57 57 58 58 59 59 60 60 59 59 59 59 59 59 59 60 60
54 54 54 54 55 55 55 56 56 56 56 57 57 57 57 57 57 58 58 58 57 58 58 58 57 57 57 57 56 56 57 56 56 55 55 54 52 51 51 51 51 52 53 54 55 56 56 57 57 57 58 59 59 59 60 61 61 61 61 61 60 60 61
52 52 53 53 53 54 54 55 55 56 56 56 57 57 57 57 57 58 58 58 58 58 58 58 57 57 57 56 56 56 55 55 55 54 55 54 53 52 53 53 52 51 50 51 52 53 54 54 55 55 56 56 57 57 59 60 61 62 62 62 62 62 62
52 52 52 53 53 53 54 54 55 55 55 56 57 57 57 57 58 58 58 58 59 59 58 57 57 56 56 56 55 55 55 54 54 54 54 54 54 54 54 53 51 49 48 48 50 52 53 53 54 55 55 55 56 57 58 59 60 61 62 62 63 63 64
52 52 53 53 53 53 53 54 54 55 55 55 56 56 56 56 57 57 57 57 57 57 57 56 55 55 55 55 55 55 55 54 54 54 53 53 54 54 54 52 51 50 49 50 52 53 53 54 55 55 56 57 58 59 60 60 61 62 63 64 64 65 66
52 53 53 54 54 54 53 54 55 55 55 55 55 55 55 55 55 55 55 54 54 54 53 53 52 53 53 54 55 55 55 55 55 55 54 54 54 55 54 53 53 53 54 56 56 55 54 54 56 57 58 59 61 62 63 63 64 64 65 67 67 68 69
51 52 53 53 54 53 53 54 55 55 55 55 55 55 55 54 54 55 54 53 52 52 52 52 52 52 54 55 55 55 55 56 56 56 56 56 56 57 57 58 59 60 61 60 58 56 55 56 58 59 61 62 62 63 64 65 65 66 67 68 69 70 71
49 50 51 52 52 52 53 53 54 54 54 54 55 55 55 54 54 54 54 53 53 53 53 54 55 55 56 56 56 56 57 57 58 58 58 57 57 58 59 60 61 61 60 59 57 56 56 58 59 60 61 62 62 62 62 63 63 65 66 66 67 68 70

ECMWFFLT1_500_spd_027.txt.gz
Wind_Speed
24 24 25 25 25 25 25 25 24 24 24 24 24 23 23 22 22 21 21 21 22 23 23 23 24 25 25 26 26 27 27 27 27 27 27 28 29 29 29 28 26 24 27 28 26 23 19 18 20 26 32 36 39 41 40 41 42 42 43 44 46 47 45
21 22 24 24 25 24 24 23 23 22 22 22 22 22 22 21 21 20 20 20 21 22 22 23 24 25 25 26 26 26 26 26 27 27 27 28 28 29 29 29 28 28 31 32 29 26 23 20 19 21 25 28 33 38 41 43 42 41 41 43 45 45 43
19 20 22 23 23 23 23 22 22 21 21 21 21 21 21 21 20 20 19 19 20 21 21 22 23 24 25 25 25 25 25 25 25 26 26 26 27 27 28 28 28 28 30 32 31 30 29 27 26 25 24 24 26 29 33 36 38 38 38 40 43 44 44
19 19 20 21 22 22 22 22 21 21 21 21 21 21 21 20 20 20 19 19 19 20 21 22 22 23 24 24 24 24 24 24 24 25 25 25 26 26 26 27 27 26 28 29 30 31 32 31 31 29 27 25 23 25 28 30 32 33 32 32 35 39 41
19 19 20 20 20 21 21 20 20 20 20 20 20 20 20 20 20 19 19 19 19 19 20 21 22 23 23 23 23 23 23 23 23 23 24 24 25 25 25 25 26 25 26 27 27 29 30 31 30 29 28 26 23 23 26 28 31 33 32 31 31 33 34
19 19 20 20 20 20 20 19 19 18 18 19 19 19 19 19 19 19 19 19 19 19 20 20 21 22 23 23 23 22 22 22 22 22 22 23 23 24 24 23 24 24 24 25 25 26 27 28 28 27 27 26 25 24 25 26 28 31 33 35 36 35 34
19 19 20 20 20 20 19 19 19 18 17 17 17 17 18 18 18 18 18 18 18 19 19 20 20 21 22 22 22 22 21 21 21 21 21 22 22 22 22 22 22 22 22 23 23 23 24 24 25 25 25 24 24 25 25 26 26 27 28 31 33 36 37
19 19 20 20 20 20 20 20 20 19 18 17 17 17 17 17 17 17 17 17 17 17 18 19 20 20 21 22 22 22 22 21 21 21 21 21 21 21 21 20 20 20 20 21 21 21 21 22 22 22 22 22 23 24 25 25 26 26 26 27 28 30 32
21 20 20 21 22 21 21 20 20 20 19 18 17 17 17 16 16 16 16 16 16 16 17 18 18 19 20 21 21 22 21 21 21 21 21 21 20 20 20 19 19 19 18 19 19 19 19 20 20 20 20 20 21 22 23 24 24 25 25 25 26 26 27
22 21 21 21 22 22 22 21 21 20 19 19 18 17 17 16 16 16 16 16 16 16 16 16 17 18 19 19 20 20 21 21 20 20 20 21 20 20 20 19 19 18 18 18 18 18 18 18 18 18 18 18 19 19 21 22 22 23 23 23 24 24 24
22 21 21 21 22 22 23 22 22 21 20 18 17 17 16 16 16 16 16 16 16 16 16 16 16 17 18 18 19 19 19 20 20 20 20 20 20 20 19 19 19 19 18 18 18 17 17 17 17 17 17 17 18 18 19 20 21 22 22 22 23 23 22
22 22 22 22 21 22 23 23 23 22 20 19 18 17 16 16 16 16 16 17 17 17 17 17 17 17 17 18 18 18 19 19 19 19 19 19 20 20 19 19 19 19 19 19 19 18 18 18 18 18 18 18 18 18 19 20 21 22 22 22 23 23 23
23 24 24 23 22 23 23 23 23 22 21 19 18 18 17 16 16 16 17 17 17 18 18 19 19 19 18 18 19 19 19 20 20 20 20 20 21 21 21 20 20 20 20 20 20 20 20 20 20 20 20 20 20 20 21 21 22 23 24 24 24 25 25
25 25 24 24 23 24 24 24 23 22 22 21 20 19 18 17 17 17 17 17 17 17 17 18 19 19 20 20 20 20 21 21 22 22 23 23 23 23 22 22 22 22 22 22 22 22 22 22 22 22 22 22 22 22 23 23 23 24 26 26 26 27 27
26 26 25 24 24 24 25 25 25 24 23 23 22 21 20 19 19 18 18 18 18 17 16 16 17 17 18 19 20 21 22 23 23 24 25 25 25 25 25 25 25 25 24 24 24 24 25 25 25 25 25 25 25 25 25 25 25 26 27 28 29 29 30
30 28 27 26 25 25 25 26 26 26 26 25 25 24 24 22 21 21 20 20 20 20 19 18 17 17 17 17 19 20 22 23 24 26 26 27 27 27 27 27 27 27 27 27 27 27 27 27 28 28 28 28 28 28 28 29 29 29 29 30 31 31 32
32 31 30 29 29 29 29 28 28 28 28 28 28 27 27 25 24 23 23 23 23 23 22 21 20 20 19 19 19 20 21 22 23 25 26 27 28 28 29 29 29 29 29 29 29 29 29 29 30 30 30 31 31 31 31 31 32 32 32 32 33 34 34
33 33 32 32 32 32 32 32 31 31 31 31 30 29 29 28 27 25 25 25 26 25 25 24 23 23 23 22 23 23 23 23 24 25 26 26 27 28 29 29 30 30 31 31 31 32 32 32 32 32 32 32 32 32 32 33 34 35 35 35 36 37 37
34 35 34 35 35 35 34 34 34 33 33 34 33 31 30 30 30 30 29 28 29 29 28 28 27 26 26 26 27 28 27 27 27 27 27 28 29 29 29 29 29 29 30 31 31 32 33 33 34 34 34 34 34 33 33 33 34 35 36 36 36 37 39
37 37 37 37 37 37 36 37 37 38 38 37 36 34 33 32 33 33 33 33 32 33 32 32 32 31 31 30 30 31 31 32 32 31 31 31 31 31 32 31 31 31 32 32 32 32 33 33 34 35 35 35 35 35 35 34 34 35 35 36 37 37 38
40 41 41 40 39 39 39 39 39 39 40 40 39 37 35 34 34 35 36 36 36 37 36 35 36 35 35 35 35 34 34 34 34 34 35 35 35 35 35 35 35 36 35 35 36 35 35 35 36 36 36 37 37 37 37 37 37 37 37 37 37 37 38
42 43 44 44 43 42 41 41 41 41 41 39 38 38 37 36 36 37 38 38 39 40 39 38 38 38 38 39 39 38 37 36 36 36 37 38 39 40 41 41 40 39 40 40 40 40 39 39 39 39 39 39 39 40 40 40 41 40 40 39 39 39 39
47 45 45 46 46 46 46 46 46 46 45 43 41 41 40 39 39 40 39 41 42 42 41 40 40 40 40 42 42 42 41 40 40 40 39 39 39 38 39 39 39 39 39 39 39 39 39 40 40 39 39 39 40 40 41 42 42 43 43 42 42 42 42
50 48 46 47 48 48 49 49 49 49 50 49 48 47 46 45 45 44 44 44 45 45 44 43 43 43 43 43 43 44 43 43 44 44 43 43 43 41 40 40 40 39 39 40 41 41 41 42 42 42 42 42 42 42 42 42 42 42 43 42 42 43 44
50 50 50 50 50 51 52 52 52 52 53 53 53 52 50 49 49 49 50 49 48 48 48 47 47 47 47 46 46 46 46 46 47 47 48 48 48 47 47 47 47 46 46 46 46 47 46 46 46 47 47 47 47 47 46 45 44 44 44 43 42 43 44
49 49 50 51 52 53 54 54 55 55 55 55 55 54 53 52 52 52 53 53 52 52 52 50 49 50 51 51 51 50 50 50 50 50 51 51 51 50 51 51 51 51 51 50 50 50 50 50 50 50 50 49 49 49 50 50 49 49 48 48 47 47 48
49 50 50 51 52 53 54 54 54 55 55 55 55 55 54 54 54 53 54 54 54 55 55 53 51 52 53 53 53 54 54 53 53 53 54 54 54 53 53 54 54 55 55 54 54 53 52 52 52 52 52 52 52 52 52 52 53 53 53 53 53 52 52
55 56 56 56 56 56 57 57 57 57 57 56 56 56 57 57 56 56 56 56 56 57 56 54 53 55 56 55 56 57 57 56 56 56 57 56 57 56 56 56 56 56 56 56 56 55 54 54 55 55 55 55 54 54 54 54 54 55 56 56 55 55 53
59 59 60 59 59 59 60 60 60 60 60 60 60 60 60 60 60 59 59 59 59 58 56 55 56 57 57 58 58 59 59 59 59 59 59 59 59 59 59 58 58 57 57 57 57 57 56 56 56 56 56 55 55 55 55 56 56 57 57 57 57 56 56
58 58 58 59 58 58 59 59 59 60 60 60 61 60 61 61 60 60 61 61 60 58 56 56 57 57 57 58 58 59 59 59 59 60 59 59 60 60 60 59 58 58 58 59 59 58 58 58 58 58 57 56 56 56 56 57 58 59 59 58 58 58 58
57 57 56 56 56 56 56 56 56 57 57 58 58 58 58 58 59 60 60 59 58 56 56 57 57 57 57 57 57 57 57 57 57 57 58 58 59 59 59 59 59 60 60 60 60 59 58 58 58 58 57 56 56 56 56 58 58 58 58 58 58 59 59
55 55 55 55 55 54 54 54 54 54 54 55 55 56 56 56 57 58 57 56 55 55 56 56 56 56 56 56 56 56 56 56 56 56 57 57 58 59 59 60 60 59 59 59 58 58 57 58 58 58 57 57 56 55 57 58 58 58 58 58 58 59 59
54 54 54 54 54 54 54 53 53 53 53 53 53 54 55 55 55 55 54 54 54 55 55 55 55 56 55 55 56 56 56 57 56 56 57 57 58 59 59 59 59 58 57 57 57 56 57 57 58 58 57 56 56 55 56 57 58 58 57 56 56 57 58
53 53 53 53 53 53 53 53 53 53 53 52 52 53 53 53 53 53 53 53 54 54 54 55 55 55 55 55 55 56 57 57 57 56 56 57 57 58 58 58 57 56 56 56 56 56 56 56 56 57 56 56 55 55 55 55 56 56 55 55 56 57 58
53 52 52 53 53 53 53 53 54 53 54 53 53 53 53 53 53 53 53 53 53 53 53 53 53 53 53 54 55 55 56 55 55 55 55 55 56 56 56 57 56 55 55 56 56 56 56 56 56 56 56 57 57 57 57 57 58 58 59 59 59 58 58
51 51 52 52 53 52 52 53 53 53 54 54 53 53 53 53 54 53 53 53 52 52 52 52 51 52 52 53 53 53 53 53 53 53 53 54 54 55 55 55 56 55 55 56 56 56 57 57 57 58 58 59 59 60 60 61 62 63 63 62 61 60 60
48 49 50 50 50 50 51 51 51 52 53 53 53 53 53 53 53 53 52 52 52 51 51 51 51 51 51 51 51 51 51 51 51 51 52 52 53 54 55 56 57 57 57 58 58 58 59 59 59 59 60 60 61 61 62 63 64 64 64 63 62 62 63

ECMWFFLT1_500_spd_030.txt.gz
Wind_Speed
22 21 21 22 22 22 22 22 23 23 23 24 24 24 24 24 25 25 25 26 25 23 23 22 22 21 21 21 21 23 24 24 25 25 24 24 25 25 24 24 24 23 22 22 21 22 23 22 20 18 19 19 19 21 29 38 39 38 40 41 43 45 46
21 21 20 20 20 20 20 21 22 22 22 22 22 22 22 22 22 22 23 23 24 23 22 22 21 21 20 20 21 22 23 24 25 25 24 23 24 24 23 24 25 26 26 26 25 25 25 25 23 22 21 20 18 16 19 27 34 36 38 40 40 41 43
21 20 19 19 18 18 19 19 20 21 22 22 21 21 21 21 21 21 21 21 22 22 21 21 21 21 20 20 20 21 22 23 24 25 24 23 23 23 22 22 24 26 27 27 28 29 30 29 28 27 26 24 22 20 19 21 26 31 35 37 39 39 40
20 19 18 18 17 17 18 18 19 19 20 20 20 20 20 20 20 20 20 20 21 21 21 21 20 20 20 20 20 21 22 23 24 24 24 23 22 22 22 22 22 24 25 25 25 27 28 29 28 28 27 27 26 25 24 23 22 25 27 30 33 35 37
19 18 18 18 17 18 18 18 18 18 18 19 19 19 19 20 20 20 20 20 20 20 20 20 20 20 20 20 20 20 21 22 23 23 23 23 22 21 21 21 21 22 23 23 23 24 25 25 25 26 26 26 26 26 26 25 23 23 24 26 28 29 31
18 17 17 17 17 17 18 18 18 18 18 18 18 18 18 18 19 19 19 19 19 19 19 20 20 20 20 20 20 20 21 21 21 22 22 22 22 21 21 21 21 21 22 22 22 22 23 23 23 24 24 25 25 25 25 25 24 22 22 25 27 28 28
20 17 16 17 17 17 18 18 18 18 18 18 18 17 17 17 17 17 17 17 17 18 19 19 19 19 20 20 20 20 20 20 20 21 21 21 21 20 20 20 20 20 20 21 21 21 21 22 22 22 22 22 23 23 23 23 24 23 22 23 24 27 28
20 18 17 18 18 19 19 19 18 19 19 19 18 18 18 17 17 16 16 16 16 17 17 18 18 19 19 19 19 19 20 19 19 20 20 20 20 19 19 19 19 19 20 20 20 20 20 20 21 21 21 21 21 21 21 22 23 23 22 22 23 25 26
20 18 18 19 20 20 20 20 20 20 20 20 19 19 19 18 18 17 16 15 15 15 16 16 17 17 18 18 18 19 19 19 19 19 19 19 20 19 19 19 19 19 19 19 19 19 19 19 19 19 19 19 19 19 19 20 21 21 20 22 23 24 24
20 19 20 21 22 22 21 21 21 21 21 20 20 19 19 19 19 18 18 17 16 15 15 16 16 16 17 17 17 17 18 18 19 19 19 19 19 19 19 18 18 18 18 19 19 18 18 18 18 18 18 18 18 17 17 18 19 19 18 21 22 21 21
21 20 21 21 22 23 22 21 21 22 21 21 20 19 19 19 19 18 18 18 17 17 16 16 16 16 16 16 17 17 17 17 17 18 18 18 18 19 19 18 18 18 18 18 19 18 18 17 18 17 17 17 17 17 17 17 18 18 18 19 21 20 20
23 21 21 22 22 22 22 22 21 21 21 21 20 20 19 18 18 18 18 18 18 18 18 18 18 17 17 17 17 17 17 17 17 17 17 18 18 18 19 19 19 18 18 18 18 18 18 18 18 18 17 17 17 17 17 18 18 18 18 19 20 20 19
23 22 22 22 21 21 22 22 22 21 21 20 20 20 19 18 18 17 17 17 18 18 19 19 19 19 19 19 18 18 18 18 18 18 18 18 18 19 19 19 19 19 19 19 19 19 19 19 18 19 19 19 18 18 18 19 19 19 20 20 21 21 20
24 23 23 23 22 21 22 23 23 22 20 20 20 20 19 19 19 18 18 18 18 18 19 19 20 20 21 21 21 21 20 20 20 20 20 20 20 20 20 20 20 20 20 20 20 20 20 20 20 20 20 20 20 20 20 20 21 21 22 22 22 23 22
26 24 23 24 24 24 24 23 23 22 21 21 21 21 21 20 20 20 20 20 20 19 19 19 20 20 20 21 21 22 22 23 23 23 23 23 23 22 22 22 22 22 22 22 22 22 22 22 22 22 22 22 22 22 22 22 22 23 24 24 25 25 25
30 28 27 27 27 27 27 26 24 22 22 22 22 22 23 23 22 22 22 23 23 22 22 21 20 20 20 20 20 21 22 23 24 24 25 25 25 25 24 24 23 23 24 23 24 23 23 24 24 24 24 25 25 24 24 24 24 25 25 26 26 27 27
33 31 30 30 29 30 30 30 28 25 24 24 24 24 24 25 25 25 25 26 26 25 24 23 22 22 22 21 21 22 22 22 22 22 23 24 24 25 26 26 26 26 26 25 25 25 25 25 26 26 26 26 27 27 28 27 27 27 27 27 28 28 28
33 32 31 31 30 29 29 29 29 29 28 27 27 27 26 27 28 29 28 29 28 27 27 26 25 25 25 25 24 24 24 23 23 23 23 24 23 24 25 26 26 26 27 27 26 27 27 27 28 28 28 28 28 29 29 30 30 29 29 28 29 30 31
34 33 32 32 31 30 31 32 32 31 30 29 29 29 29 30 31 32 31 31 30 30 30 29 28 28 28 28 27 27 27 27 26 26 26 26 26 26 26 27 27 27 27 28 28 28 28 28 28 29 29 29 30 30 30 31 31 31 30 30 30 31 33
37 36 35 35 35 34 35 35 33 30 29 30 31 32 33 35 35 33 31 30 30 32 32 33 33 31 29 29 30 30 31 31 30 30 30 30 30 30 30 30 30 30 30 30 30 30 29 29 29 30 30 31 31 31 31 31 31 31 32 31 32 32 33
40 40 39 40 41 40 39 37 33 32 33 33 34 34 34 34 35 34 32 30 29 30 31 31 32 32 30 29 30 32 33 34 34 34 34 34 34 34 34 34 34 34 34 34 34 34 33 33 32 33 33 33 33 33 33 33 33 34 34 33 33 34 34
43 43 43 44 45 45 45 44 42 41 41 40 39 39 38 38 38 36 34 31 30 30 30 29 29 28 28 29 31 32 34 36 37 37 37 36 36 36 36 36 37 37 36 36 37 37 37 37 37 38 38 38 37 37 37 37 36 37 37 36 35 35 35
47 47 47 47 48 48 48 47 46 44 44 44 44 45 45 45 44 42 40 39 39 40 40 37 34 32 31 32 34 35 36 37 38 39 39 39 38 38 38 39 39 40 40 40 40 39 39 39 39 39 39 39 38 37 36 36 36 37 37 37 37 37 37
51 51 50 50 51 51 51 50 48 46 44 45 45 47 48 47 46 47 48 48 49 49 48 44 42 41 39 38 39 40 41 40 40 41 42 42 41 40 41 42 42 43 43 43 43 43 44 43 42 40 40 39 39 38 38 38 38 39 39 39 39 40 40
53 52 52 52 53 53 53 53 52 51 49 47 46 47 48 49 48 48 49 51 51 52 50 48 47 46 44 43 43 44 45 45 44 45 45 45 44 44 44 44 45 45 45 46 46 47 47 48 47 47 46 46 45 45 45 45 44 44 44 44 44 45 45
52 52 51 52 52 53 54 54 54 54 53 52 50 49 49 50 51 51 51 51 52 53 52 51 51 50 48 47 46 46 47 48 48 48 48 48 49 49 49 49 48 49 49 50 50 50 51 51 51 51 50 50 49 50 50 50 49 49 49 49 49 49 49
52 51 51 51 52 52 53 54 53 53 53 53 53 52 51 51 52 52 52 51 52 52 52 52 51 50 49 48 47 48 49 50 50 50 50 51 52 53 53 53 52 52 53 53 54 54 54 55 55 54 54 53 53 53 53 53 53 53 53 53 53 52 52
53 52 51 52 53 53 54 54 53 52 52 52 52 53 52 52 52 52 53 53 53 53 52 52 52 52 50 49 50 51 52 52 52 52 52 52 52 53 54 55 55 56 57 57 57 57 58 58 58 58 57 57 56 56 55 55 54 54 54 54 54 54 53
54 54 54 54 54 54 54 55 54 53 53 53 53 54 55 56 56 56 56 57 57 56 56 57 57 56 55 54 54 56 56 55 55 55 55 55 55 55 55 55 56 57 59 59 59 60 60 60 61 61 60 59 59 58 57 56 56 55 55 55 55 55 55
54 55 56 56 57 57 57 57 57 57 57 57 57 58 59 60 61 61 61 61 61 60 59 59 58 57 57 56 57 58 57 56 56 56 56 55 55 55 55 56 56 57 58 59 60 60 61 61 61 61 61 60 60 58 58 57 57 57 57 57 57 57 56
53 54 54 56 57 58 58 58 57 57 57 58 58 58 59 60 61 62 62 61 60 59 59 59 58 57 57 56 56 56 56 55 55 54 54 54 54 55 55 55 56 56 57 58 58 58 59 59 60 60 60 60 59 59 59 59 58 58 58 58 58 58 57
52 53 54 55 55 56 56 56 56 56 55 56 56 56 57 58 59 60 60 58 58 57 58 58 58 57 56 55 54 54 54 53 53 53 53 53 53 54 54 55 55 55 56 56 56 57 57 58 58 59 59 59 60 60 60 60 60 59 58 58 58 58 57
52 53 54 54 55 56 57 57 56 56 56 55 56 56 56 56 56 57 57 56 56 56 57 57 57 56 55 54 53 53 52 52 53 52 52 53 53 53 53 54 54 54 54 55 55 56 57 57 57 58 58 59 60 60 61 61 60 60 59 58 57 57 57
51 51 52 53 53 54 55 56 56 57 57 56 57 57 57 56 55 55 54 54 54 55 55 55 55 55 54 54 53 53 52 52 52 52 52 52 52 53 53 54 53 53 54 55 55 55 56 57 57 57 58 58 59 59 60 60 60 60 59 58 58 57 57
49 49 50 51 51 51 52 53 53 54 55 55 56 57 56 55 54 53 53 52 53 53 53 53 53 53 53 54 53 53 52 52 52 52 52 52 52 52 53 54 53 53 54 54 55 55 56 56 57 57 57 58 58 59 59 59 60 60 59 59 59 58 58
48 48 48 49 49 49 49 49 49 50 51 52 54 55 54 53 52 51 51 52 52 52 52 51 51 52 52 53 53 52 52 52 52 51 51 51 51 51 52 52 52 52 53 54 54 55 55 55 56 56 56 57 58 58 59 59 60 60 60 61 61 61 61
46 46 47 48 49 49 49 48 47 47 48 50 51 51 50 49 50 50 51 51 50 50 50 50 50 50 50 50 51 50 50 50 50 50 49 49 49 49 50 50 51 51 52 52 53 53 53 54 54 55 55 56 57 58 59 59 60 61 61 62 63 63 63

ECMWFFLT1_500_spd_033.txt.gz
Wind_Speed
17 18 18 18 18 18 19 19 19 19 20 19 19 19 18 18 18 18 18 19 19 19 19 19 19 19 20 20 20 21 21 21 21 21 21 21 22 21 20 20 21 21 20 20 21 21 20 19 19 19 18 18 16 14 13 13 15 18 24 32 37 39 41
18 18 19 19 19 20 19 19 19 19 19 19 18 18 18 18 18 18 18 18 18 18 18 18 18 18 19 20 20 20 20 20 21 21 21 21 21 21 20 20 21 21 20 21 22 23 23 23 21 19 19 19 18 17 18 18 17 16 17 22 31 36 39
19 19 19 20 20 20 20 19 19 18 18 18 18 17 17 17 17 17 18 18 17 17 17 17 17 17 18 19 19 19 18 19 19 20 20 20 21 21 20 20 20 20 20 21 23 24 25 25 25 23 23 23 23 23 24 23 22 20 18 16 20 28 36
20 20 20 20 20 20 20 19 19 18 18 17 17 17 16 16 15 16 16 16 16 16 16 16 17 17 17 17 17 17 17 17 17 18 18 18 19 19 19 19 20 20 20 21 22 24 25 26 25 24 24 25 25 25 25 24 23 22 20 17 16 19 26
21 21 21 20 20 20 20 19 18 18 18 17 17 17 16 16 15 15 15 16 16 16 16 16 16 16 16 16 16 16 16 16 16 16 16 17 17 17 18 18 19 20 20 20 22 23 24 24 24 23 23 23 24 24 24 24 24 22 21 20 18 18 21
21 21 21 20 20 20 20 19 17 17 17 17 17 17 17 16 16 15 15 15 16 16 16 15 15 15 16 16 16 16 15 15 15 15 15 15 15 15 16 16 17 18 19 19 20 22 23 23 23 23 22 22 22 22 23 24 24 23 22 22 21 20 21
22 21 21 20 19 19 19 18 17 16 17 17 17 17 16 16 16 16 15 15 15 15 15 16 15 15 15 15 16 16 15 15 15 15 15 15 15 14 15 15 15 16 17 18 19 20 21 21 22 21 21 21 21 22 22 23 23 22 23 22 22 21 21
23 21 21 19 18 18 18 17 16 17 17 17 17 17 17 16 16 16 16 16 15 15 15 15 15 16 16 15 15 15 15 14 14 14 14 15 15 15 14 14 14 15 15 16 17 17 19 19 20 20 20 20 20 21 21 22 22 22 22 22 22 22 21
24 21 20 19 17 16 16 15 15 16 17 17 17 17 17 17 17 17 17 17 16 16 16 16 16 16 16 16 16 16 15 15 14 14 14 14 14 14 15 14 14 14 15 15 16 16 16 17 17 18 18 19 19 19 20 20 21 21 21 21 22 21 21
25 22 20 19 17 16 15 15 15 16 17 17 16 17 17 17 17 17 17 17 17 17 16 16 16 16 16 16 16 16 16 16 15 15 14 14 14 14 14 14 14 14 14 15 15 15 15 15 15 16 16 17 17 17 18 18 19 20 21 21 21 21 21
24 22 20 20 19 17 15 15 16 16 16 16 16 16 16 16 16 17 17 17 17 17 16 16 16 16 16 16 17 17 17 17 17 16 16 15 14 14 14 13 14 13 13 14 14 15 14 14 14 14 14 15 15 16 16 16 16 17 19 19 19 19 19
23 22 21 21 20 18 17 16 17 17 17 16 16 16 15 15 16 16 16 17 17 17 16 16 15 15 16 16 17 17 18 18 18 18 18 17 16 16 15 14 14 14 13 13 13 14 14 14 13 13 13 14 15 15 16 15 15 16 17 18 17 17 18
20 21 23 23 21 18 17 17 16 17 18 18 18 17 17 16 16 17 17 17 17 17 16 16 16 16 16 16 17 18 18 19 19 20 19 19 18 18 17 16 15 15 14 14 14 14 14 15 15 14 14 14 15 15 16 16 16 16 17 18 18 17 17
19 18 20 23 22 19 17 18 17 17 18 19 18 19 19 19 18 18 18 18 18 17 17 17 17 17 17 17 17 17 18 19 19 20 20 20 20 19 18 18 17 16 16 16 16 16 16 16 17 17 16 16 16 17 17 18 18 18 18 18 19 19 18
25 23 24 23 22 20 19 19 19 19 19 20 19 20 20 21 21 21 21 21 21 20 19 19 19 19 19 19 19 18 18 18 18 19 19 20 20 20 20 20 19 18 18 18 18 18 18 18 19 19 19 19 19 19 19 19 20 20 20 20 20 21 20
29 32 34 31 27 25 23 22 22 22 22 22 21 22 22 21 21 22 23 23 22 22 22 21 21 21 21 21 21 20 19 18 18 18 18 19 19 19 19 19 20 20 20 20 20 20 20 20 21 21 21 21 21 21 21 21 21 21 22 23 23 23 23
30 33 36 36 33 31 29 27 26 26 26 25 25 26 26 24 23 23 24 23 23 23 23 23 24 26 25 24 23 23 22 20 19 19 19 19 18 18 18 18 18 19 20 20 21 21 22 22 23 23 23 23 23 23 24 23 23 23 23 24 25 25 25
35 35 35 35 35 34 32 29 27 28 28 28 28 28 28 27 26 26 26 26 26 25 25 25 26 26 26 26 25 24 24 24 22 21 21 21 20 19 20 19 19 20 20 21 21 21 22 22 23 24 24 25 25 25 26 26 26 26 26 26 26 27 27
36 36 36 35 34 33 31 29 28 28 28 28 28 27 26 27 29 29 29 29 28 28 28 28 28 27 26 26 26 25 26 26 26 25 24 24 23 22 22 22 22 22 22 23 24 24 24 24 24 25 25 25 26 26 27 27 27 28 28 27 28 28 28
35 35 35 35 35 33 32 30 31 31 30 29 29 29 29 30 31 30 29 29 29 29 30 30 30 29 27 26 27 27 28 29 29 29 27 26 26 25 26 26 26 26 27 27 27 27 27 28 28 28 28 28 28 29 29 29 28 28 28 29 29 29 30
39 38 37 37 37 36 35 34 34 34 34 33 33 33 33 33 32 30 30 31 31 31 31 31 31 30 28 28 27 25 26 28 30 30 29 28 29 29 29 30 31 31 32 32 32 32 32 31 31 32 32 32 32 32 32 32 32 32 31 31 32 32 32
44 43 42 41 40 40 39 39 39 38 38 38 38 38 38 37 37 36 37 38 37 35 34 35 37 36 33 31 28 24 25 27 28 29 29 29 29 30 30 32 33 34 35 35 36 36 36 36 36 36 35 35 35 35 35 35 35 36 36 36 36 36 36
47 47 47 47 46 45 45 44 44 43 43 42 41 41 41 41 42 42 42 41 40 39 39 39 40 40 38 37 36 36 38 38 35 33 32 32 32 32 33 34 35 36 36 37 38 39 39 39 39 39 40 39 39 39 38 38 38 38 38 38 38 38 38
50 50 51 51 51 51 50 50 50 50 49 48 47 46 45 45 45 45 44 44 43 43 43 42 43 43 43 43 44 46 47 46 44 41 39 38 37 38 39 39 39 39 39 39 40 40 41 41 42 42 43 43 42 43 43 43 42 41 40 40 39 39 39
53 54 54 55 55 55 55 55 55 54 53 53 52 52 51 50 49 48 47 46 46 46 46 46 46 46 46 46 46 46 46 46 46 45 43 42 40 39 41 42 43 43 43 43 43 43 43 44 44 45 46 45 45 45 46 47 47 46 46 45 44 44 44
55 56 56 57 58 58 58 58 58 58 57 56 55 55 54 53 52 51 49 48 47 47 47 47 48 48 48 47 47 47 46 46 46 45 45 44 42 41 43 44 45 46 46 46 46 47 47 47 49 50 50 49 49 49 49 50 50 50 50 50 49 49 49
52 53 54 55 57 57 58 58 59 59 59 59 58 58 57 55 54 53 51 50 49 49 48 47 47 47 48 47 47 46 47 47 46 45 45 45 43 43 44 45 46 47 47 48 48 49 49 50 51 52 52 53 53 54 54 54 54 54 55 55 55 54 54
50 50 51 53 54 54 55 55 56 56 57 56 57 57 57 57 55 54 53 52 51 51 50 48 46 45 46 46 46 46 46 46 47 47 48 48 47 46 46 47 48 49 50 50 51 51 52 53 53 54 54 54 55 56 56 57 58 58 58 59 59 59 59
52 52 51 51 52 52 52 53 53 53 53 53 54 54 55 55 55 54 53 52 51 50 50 49 49 49 49 48 49 49 49 49 50 50 51 52 52 52 51 50 51 52 53 53 53 53 53 54 55 55 55 56 56 56 57 58 59 59 60 60 60 61 61
54 53 52 51 51 51 51 51 51 51 51 52 53 53 54 54 55 55 54 53 52 52 52 52 53 53 53 53 52 52 52 52 52 52 52 53 54 55 54 53 52 52 53 53 53 53 53 53 54 55 55 56 56 56 57 58 58 59 59 60 60 60 60
53 53 52 52 51 51 51 50 50 51 51 51 52 52 53 54 55 55 55 54 54 53 53 53 54 55 55 54 53 52 52 52 52 52 52 52 52 53 53 54 53 52 52 53 53 53 53 53 54 54 55 55 55 56 56 57 57 58 59 59 59 59 60
52 52 52 52 52 52 51 51 51 51 51 52 52 52 52 53 53 53 54 53 53 53 52 51 51 52 53 52 52 52 51 51 51 51 51 51 51 51 51 52 52 52 52 52 52 52 53 53 54 54 55 55 55 56 56 57 57 58 58 58 59 59 59
51 51 51 51 51 51 51 51 51 52 52 52 53 53 53 53 53 53 53 53 53 53 52 52 51 51 51 51 51 51 51 50 50 50 50 50 50 51 51 50 50 51 51 51 51 52 52 53 54 54 55 55 56 56 56 57 57 57 58 58 58 59 59
51 50 50 50 50 49 49 49 49 50 51 52 52 52 52 52 53 53 53 53 53 53 53 53 52 52 52 51 51 51 51 50 49 49 49 50 50 51 51 50 50 50 50 50 51 51 52 53 53 54 54 55 55 56 56 56 56 57 57 57 58 58 58
49 49 49 48 48 48 48 48 48 48 49 49 49 49 49 50 50 51 51 51 51 51 51 52 52 52 52 51 51 51 50 49 49 49 49 49 50 50 50 50 50 50 50 51 51 52 53 53 53 53 54 55 55 56 56 56 57 57 57 58 58 58 59
49 48 48 47 47 47 47 47 47 47 47 47 47 46 45 46 46 47 47 47 47 47 48 48 48 49 49 49 49 49 49 48 48 48 48 48 49 49 50 50 50 50 51 51 51 52 52 52 52 53 53 54 54 55 56 56 57 57 58 58 58 59 59
48 48 48 47 47 47 47 47 47 46 46 46 45 44 44 44 45 45 44 44 45 45 45 45 45 45 45 46 46 46 46 46 46 46 46 46 46 47 48 48 48 49 49 50 50 50 50 50 50 50 51 52 53 53 54 55 56 57 57 58 59 59 60

ECMWFFLT1_500_spd_036.txt.gz
Wind_Speed
11 13 13 13 13 13 13 13 13 13 13 13 13 13 13 14 14 14 14 14 14 14 14 14 15 15 16 17 19 20 21 21 21 21 21 20 21 20 20 20 20 20 20 20 20 21 21 21 20 19 17 16 15 16 16 17 17 16 17 21 27 32 36
11 12 13 14 15 15 15 15 15 14 13 13 12 12 13 13 13 14 14 14 14 14 14 14 15 15 16 17 18 20 21 21 21 21 21 20 20 20 20 20 19 19 20 20 21 21 22 23 22 21 20 18 17 17 17 17 17 17 15 16 19 22 25
12 12 13 15 16 16 16 17 16 15 14 13 12 11 12 12 12 12 13 14 14 14 14 15 15 15 16 16 17 19 20 21 21 21 21 20 20 20 20 19 19 19 19 20 21 22 23 24 23 23 22 21 20 19 19 20 20 19 18 18 18 18 19
13 13 14 16 16 17 17 17 17 16 14 13 12 11 11 11 11 11 12 13 14 14 14 15 15 16 16 16 17 18 19 19 20 20 20 20 19 19 19 19 18 18 19 20 20 21 22 23 24 24 24 25 24 24 24 24 24 23 24 23 23 22 20
14 14 14 16 17 17 17 17 17 16 15 13 12 11 11 11 11 11 11 12 12 13 14 14 15 15 16 16 17 17 18 18 19 19 19 19 19 18 17 17 17 17 18 19 20 20 21 23 23 24 24 26 26 27 27 26 25 26 26 25 24 23 22
15 15 15 16 17 18 18 18 18 17 16 15 14 12 11 11 11 11 11 11 11 12 12 13 14 14 15 16 16 17 17 17 18 18 18 18 18 17 17 16 16 16 17 17 19 19 20 21 22 22 23 24 25 25 26 25 25 26 26 25 25 24 23
17 16 15 16 17 18 18 18 19 19 18 16 15 14 13 12 12 12 12 11 11 12 12 12 13 13 14 14 15 16 16 17 17 17 18 18 18 17 17 16 16 16 16 16 17 18 19 19 20 20 21 22 22 23 24 23 24 25 25 24 24 24 24
19 18 17 17 17 17 18 18 18 19 19 17 16 15 14 14 13 13 13 13 13 13 13 13 13 13 13 13 14 14 15 16 16 17 17 17 17 17 17 17 16 16 16 16 16 17 17 17 18 18 18 19 19 20 21 21 22 22 22 22 23 23 23
21 19 18 19 17 16 17 18 18 18 18 18 17 17 16 15 15 14 14 13 14 14 14 14 14 14 14 14 14 14 14 14 15 15 16 16 17 17 17 16 16 16 15 15 16 16 16 16 16 16 16 16 17 17 18 19 19 19 19 20 21 21 21
22 21 21 21 18 16 16 17 18 18 18 17 17 17 17 17 16 16 15 15 14 14 15 15 15 15 15 15 15 15 15 14 14 15 15 15 16 16 17 17 17 16 16 16 15 15 15 15 15 15 15 15 15 15 16 16 17 17 16 17 18 18 19
22 23 23 22 18 17 17 17 17 18 18 17 16 16 17 17 16 16 16 16 15 15 15 15 16 16 16 16 16 16 16 16 15 15 15 15 15 15 15 16 16 17 17 16 16 16 16 16 15 14 15 15 15 14 14 15 15 15 15 15 16 16 17
20 22 23 22 19 18 20 18 17 16 17 18 17 16 15 16 16 15 15 15 15 16 16 16 16 17 17 17 17 17 17 17 17 16 16 15 15 15 15 16 16 16 16 16 16 16 16 16 16 15 15 15 15 15 14 14 14 14 14 14 14 15 16
19 20 23 24 20 19 21 19 16 16 16 18 18 17 17 16 16 16 15 15 15 15 16 17 16 16 17 17 18 18 17 18 18 18 18 17 17 16 16 16 16 17 17 16 16 16 16 16 16 16 16 16 16 16 16 16 15 16 15 15 15 15 16
20 19 22 23 21 21 21 18 17 17 18 19 19 19 19 18 17 17 17 17 17 17 17 17 17 17 17 17 17 17 17 17 18 18 18 19 19 19 19 18 18 17 17 17 17 17 17 17 17 17 17 17 17 17 17 17 17 17 17 17 17 17 18
22 21 21 22 22 21 20 18 17 19 21 21 21 21 20 20 20 20 20 20 20 20 19 18 18 18 19 19 19 18 17 17 18 19 19 19 20 20 20 20 20 19 19 18 18 18 18 18 18 18 18 19 19 19 19 19 19 19 19 19 19 19 19
24 23 23 23 24 24 24 24 24 23 23 24 24 23 21 21 21 21 23 24 23 22 21 20 19 20 20 20 21 20 20 20 20 20 19 20 20 21 20 20 20 20 20 20 19 19 19 19 19 19 20 20 20 21 21 21 21 21 21 22 22 22 22
25 25 25 25 26 27 28 29 28 26 25 26 26 24 23 23 23 23 25 28 28 25 23 22 22 21 21 21 22 23 23 24 24 23 22 22 22 21 20 20 19 19 19 19 19 19 19 19 19 20 20 20 21 22 22 23 23 24 24 24 25 25 25
25 25 26 27 27 28 29 29 28 27 27 28 26 25 25 24 24 24 25 27 29 28 25 24 25 25 25 25 25 26 26 26 24 23 24 24 24 23 22 22 21 20 20 19 19 19 19 18 18 19 19 20 20 21 22 23 24 25 26 27 28 28 28
27 28 28 29 31 32 32 31 30 28 27 28 27 26 26 25 25 25 25 25 26 26 25 26 26 26 26 26 27 28 29 28 25 23 24 25 25 25 25 24 23 23 23 22 21 21 20 20 20 20 20 21 21 22 23 23 24 24 25 26 28 30 30
32 31 30 31 32 32 31 31 31 29 29 30 29 28 27 27 27 27 27 27 26 25 26 27 28 27 24 23 26 28 28 27 26 25 25 26 26 26 27 26 26 26 26 26 25 24 24 24 24 24 24 24 24 25 26 26 26 27 27 28 28 29 31
35 34 33 34 33 33 33 33 33 33 34 34 32 31 30 30 30 30 30 30 30 30 30 30 31 30 28 27 28 29 29 29 28 28 28 27 25 24 24 26 27 28 29 29 29 28 28 28 28 28 28 28 28 29 29 30 30 30 30 31 31 32 32
39 38 38 38 37 37 38 38 38 39 39 38 36 34 34 33 33 34 34 35 34 34 35 35 34 34 35 35 34 33 33 33 32 31 30 29 26 24 25 27 28 29 30 31 31 30 30 30 31 31 31 32 32 33 33 34 34 34 34 34 35 35 35
42 42 42 41 41 41 41 41 41 42 42 41 41 40 39 38 38 38 38 39 39 39 39 39 39 39 39 39 38 36 35 35 35 35 34 34 34 34 36 36 36 36 37 38 37 36 36 36 36 36 37 37 37 38 38 38 38 38 37 37 38 38 38
43 43 44 44 44 44 44 44 44 44 44 44 45 45 44 44 44 43 43 44 44 44 44 44 43 43 42 41 40 39 38 38 38 38 39 39 40 41 41 41 40 42 43 43 43 42 41 41 41 41 41 41 42 43 43 43 42 42 42 41 41 41 41
42 41 42 42 43 44 46 47 47 47 47 48 48 48 49 49 48 48 48 48 48 48 47 46 46 45 45 44 43 42 42 42 41 41 41 42 42 43 43 43 42 42 42 43 43 43 43 43 44 44 43 44 45 46 47 46 46 46 46 46 46 46 45
42 42 42 42 43 43 44 45 46 47 47 48 48 49 49 50 50 50 50 49 49 49 48 47 46 46 46 46 46 46 45 44 44 43 43 43 44 44 44 44 44 42 41 42 43 43 43 44 44 44 45 46 47 49 50 49 49 49 50 50 50 50 50
45 45 45 45 45 44 43 43 43 43 44 45 45 46 47 47 48 49 49 48 48 48 47 46 46 46 46 47 48 47 46 45 45 45 45 45 45 45 45 45 45 44 44 43 42 42 42 43 43 44 44 46 48 50 51 51 52 52 52 53 53 53 53
46 46 46 46 46 46 45 45 45 45 46 47 47 47 48 47 47 47 47 47 47 47 47 47 47 47 47 47 47 46 45 45 45 45 45 45 45 45 44 44 44 45 45 45 43 43 44 45 45 46 47 48 49 51 53 53 54 55 55 55 55 56 56
49 48 47 47 47 47 47 48 49 50 51 51 51 51 51 51 49 48 47 47 46 46 47 47 47 47 48 47 47 46 46 45 45 45 45 45 45 45 45 45 46 47 48 48 47 47 48 48 49 49 51 52 52 53 54 55 55 56 56 56 56 57 58
51 51 50 49 49 49 49 50 51 52 53 53 53 53 53 53 52 50 50 49 48 47 47 47 47 47 48 48 48 48 48 48 47 47 47 47 48 48 48 48 49 50 51 52 52 51 51 51 51 52 53 53 53 54 55 55 55 55 56 56 57 57 58
54 54 54 53 52 51 51 52 52 53 54 54 55 55 54 54 52 51 51 50 50 50 49 48 48 48 48 48 48 48 49 49 49 49 50 50 50 50 50 50 51 51 52 53 53 52 52 52 53 53 53 53 53 54 54 55 55 56 57 57 58 58 58
55 55 55 54 53 53 52 53 53 54 55 55 55 54 54 53 52 51 51 51 51 51 51 50 50 49 49 49 49 49 49 49 50 50 50 51 51 51 51 51 51 51 51 52 52 52 52 52 53 54 54 54 54 54 54 54 55 56 57 58 58 59 59
56 56 55 55 54 54 54 54 54 54 54 54 53 53 52 51 51 51 51 51 51 51 52 52 52 52 51 51 51 51 51 50 50 50 51 51 50 50 50 50 50 51 51 51 52 52 52 53 53 53 53 53 53 54 54 55 55 56 57 57 58 58 59
56 56 56 55 55 54 54 54 53 53 52 52 51 51 50 49 49 49 49 49 50 50 51 51 51 51 51 51 51 51 51 51 50 50 50 50 49 49 48 49 49 49 50 51 51 52 53 53 52 52 52 53 53 54 55 56 56 57 57 58 58 58 59
57 56 55 55 54 53 53 53 52 51 51 49 49 48 48 48 48 48 48 49 49 50 49 49 49 49 49 49 49 49 49 48 48 48 48 48 47 47 47 47 48 48 49 50 51 51 51 51 51 52 53 53 54 55 55 56 57 57 58 58 59 59 59
57 56 55 54 53 53 52 52 51 51 50 49 48 47 47 47 46 46 47 48 49 49 49 49 48 48 48 47 47 46 45 45 45 45 45 45 44 44 44 45 46 47 48 48 48 49 49 50 51 52 52 53 53 54 55 55 56 57 57 58 58 59 59
56 55 54 54 53 53 52 51 50 50 50 49 49 48 47 46 46 46 46 47 47 48 48 48 47 47 47 46 46 45 44 44 44 44 43 43 43 42 42 43 43 44 44 45 46 46 47 48 48 49 49 50 51 51 52 53 54 55 55 56 56 57 58

ECMWFFLT1_500_spd_042.txt.gz
Wind_Speed
14 13 13 13 13 14 14 15 15 16 18 18 17 16 15 15 15 16 17 18 18 19 19 20 20 20 20 20 21 21 22 22 22 23 23 23 24 23 23 23 23 24 24 24 25 24 24 24 24 23 23 24 24 23 23 21 21 21 21 21 21 20 21
14 14 15 16 16 15 14 14 15 15 17 18 17 16 16 15 15 15 16 17 17 18 18 19 19 19 19 19 19 19 20 20 21 21 22 22 23 22 22 22 23 23 23 24 24 23 22 23 24 23 23 24 25 24 24 23 23 23 21 21 21 22 22
15 15 17 19 19 17 15 14 14 14 16 17 16 16 16 15 15 15 15 15 16 16 17 17 17 18 18 18 18 18 18 18 18 19 19 20 21 21 21 21 22 22 22 24 24 22 22 23 24 24 23 24 24 25 25 25 24 24 22 22 21 22 23
15 15 16 18 19 18 16 16 15 13 14 16 16 16 15 15 15 14 15 15 15 15 15 15 16 16 16 16 16 17 17 17 17 17 18 18 19 19 20 20 20 20 21 23 23 23 24 25 25 24 23 23 24 25 26 26 25 25 24 24 24 24 24
14 12 13 17 18 19 18 18 17 14 13 14 15 16 16 16 15 15 15 15 15 15 15 14 14 14 15 15 15 15 16 16 16 16 16 17 17 18 18 19 19 19 20 21 22 23 24 24 25 25 24 24 24 24 25 25 26 26 26 26 26 26 25
16 15 16 18 18 19 19 19 18 16 14 14 15 16 16 16 16 16 15 15 15 15 14 14 14 14 14 14 14 14 14 15 15 15 15 15 16 16 17 17 18 18 19 20 21 22 23 23 24 24 24 24 25 24 24 25 25 25 25 26 26 26 26
19 20 20 19 18 18 18 17 17 16 14 13 14 16 16 16 16 16 16 16 15 15 14 14 14 14 14 14 14 14 14 14 13 13 13 13 14 14 15 15 16 17 17 18 19 20 21 22 23 23 23 24 24 25 25 25 25 25 25 25 26 27 28
20 19 18 18 18 18 18 16 15 15 14 13 14 15 16 16 16 16 15 15 14 14 13 13 13 14 15 15 15 15 14 14 13 12 12 12 12 13 13 13 14 14 15 16 17 18 19 20 21 22 22 23 23 24 24 25 25 25 25 25 26 27 29
18 17 16 18 19 19 19 17 16 16 15 14 14 14 15 15 15 14 14 13 13 13 12 12 13 14 15 16 16 16 16 15 14 13 12 12 11 11 11 12 12 13 13 14 15 16 17 18 19 20 21 21 21 22 23 23 23 23 24 24 25 26 27
16 15 15 15 15 16 17 17 17 17 16 14 14 14 15 15 14 13 13 13 12 12 12 13 13 14 15 15 16 16 16 16 15 14 13 13 12 11 10 10 11 11 12 13 13 14 15 16 16 18 19 19 20 20 20 21 21 21 22 22 23 24 24
13 14 14 13 12 13 15 17 18 17 15 14 15 15 15 14 13 13 13 13 13 13 13 13 13 14 14 15 15 15 15 15 14 14 14 13 13 12 12 11 11 11 11 12 12 13 13 14 15 15 16 17 18 18 19 19 19 19 19 20 20 21 22
12 12 13 12 11 13 16 17 17 16 15 15 16 15 15 14 14 13 13 13 13 13 13 13 13 14 14 15 15 15 15 15 15 14 14 14 14 13 13 12 12 12 12 12 13 13 14 14 15 15 15 16 17 17 17 17 17 17 18 18 18 18 19
10 10 10 10 11 13 14 16 17 16 15 17 17 17 16 15 14 14 12 12 12 13 13 13 13 14 14 14 15 15 15 15 15 15 14 14 14 14 14 13 13 13 12 13 13 13 14 15 15 16 16 16 17 17 17 17 16 16 17 17 17 17 17
9 10 10 11 12 13 15 17 18 17 16 17 18 17 16 15 13 13 11 11 11 12 12 12 13 13 13 14 14 15 15 16 16 16 15 15 14 14 14 14 14 14 14 14 14 14 14 15 16 16 17 17 17 18 18 18 17 16 17 17 17 17 17
12 12 13 13 14 15 17 18 18 17 16 17 17 17 16 15 14 14 13 12 13 13 14 14 14 14 14 14 13 14 15 16 17 17 17 16 15 15 15 15 16 17 17 17 17 16 16 16 16 17 18 18 19 19 19 19 19 18 17 17 17 17 17
14 15 16 16 16 15 16 17 18 17 15 16 18 18 17 17 18 18 17 16 17 17 18 19 19 18 17 16 15 15 15 16 17 18 18 19 18 18 17 17 18 19 20 20 21 20 19 18 17 18 19 19 20 20 20 20 20 20 20 19 19 19 19
15 15 16 16 15 13 13 15 17 18 18 18 18 19 20 20 21 21 20 19 19 19 20 21 22 21 20 19 19 19 18 18 18 19 19 19 19 19 19 19 19 20 21 22 23 23 22 21 20 19 19 19 20 21 21 22 22 22 22 21 21 21 21
16 15 15 15 14 14 14 14 14 16 18 19 19 19 21 21 21 22 21 20 20 20 20 21 21 22 21 20 19 19 19 20 20 20 20 20 20 20 20 20 21 21 22 22 23 23 23 23 22 21 21 20 21 21 22 22 22 23 23 23 22 23 23
17 17 16 16 17 17 16 15 15 15 16 18 20 20 20 19 20 22 21 20 21 21 21 21 20 21 22 19 17 16 17 18 19 20 20 20 20 20 20 21 21 21 21 21 22 22 23 23 23 24 24 24 23 23 24 24 24 24 24 24 24 24 24
19 19 19 20 21 19 17 16 17 18 18 20 22 22 21 20 20 21 20 20 22 23 22 22 22 22 22 20 18 18 19 19 20 20 20 20 20 21 22 22 22 22 22 22 22 23 23 23 23 24 26 27 27 27 27 27 27 27 27 27 27 28 27
24 23 23 24 22 20 19 18 19 20 20 20 20 21 22 22 22 22 21 22 24 24 24 25 25 25 24 23 23 25 25 25 24 24 24 24 23 23 24 25 26 26 26 26 26 26 25 25 25 25 26 27 28 29 30 30 30 30 30 30 31 31 32
29 28 28 27 25 23 23 22 21 20 21 21 21 21 22 24 26 28 29 29 29 29 29 29 29 29 29 30 31 31 31 31 30 29 29 29 29 29 28 29 29 30 31 31 31 31 31 30 30 29 28 28 28 29 30 31 32 33 33 34 34 35 35
34 33 32 32 31 30 29 28 26 25 25 26 27 28 28 29 30 31 32 31 31 32 32 33 33 34 35 37 37 36 37 37 36 34 33 33 33 34 34 34 34 34 35 35 35 36 36 36 36 35 34 33 32 32 33 34 35 36 37 38 39 39 40
38 37 36 35 34 33 32 32 32 31 30 30 30 31 32 32 31 31 31 31 31 31 32 33 34 35 37 38 39 39 39 40 39 37 36 36 36 37 38 38 39 38 38 38 38 39 40 40 40 40 39 39 38 38 38 39 40 40 41 42 42 43 44
40 39 39 37 36 36 35 35 35 35 34 33 32 32 32 32 32 31 32 32 33 33 34 35 36 36 36 36 37 36 36 36 35 35 36 36 37 38 39 40 40 41 41 41 41 42 43 43 42 43 43 43 42 42 42 43 43 44 43 44 44 45 46
42 41 40 39 38 38 38 37 37 36 36 35 34 34 34 35 34 33 33 33 34 35 36 36 36 36 36 36 36 35 35 34 35 35 36 36 37 37 38 39 40 41 41 42 43 44 45 45 46 46 46 46 46 46 46 46 46 46 45 46 46 47 47
43 43 43 42 41 40 40 39 39 39 38 38 37 37 37 38 37 36 35 35 36 36 37 37 37 38 38 37 37 37 37 37 37 37 37 38 38 38 38 39 40 41 42 43 43 44 45 46 47 48 48 48 49 49 49 49 49 49 48 47 47 47 49
45 45 44 43 43 43 43 43 42 42 41 40 39 39 39 39 39 39 39 39 39 39 39 40 40 40 40 39 39 40 40 40 40 40 41 40 40 40 40 40 40 41 42 43 44 45 46 46 47 48 49 49 50 50 51 51 51 50 49 49 48 48 50
45 44 44 44 44 43 43 43 42 42 42 42 42 42 42 42 42 42 43 43 43 43 42 42 42 42 42 42 42 42 43 43 43 43 43 43 43 43 43 42 41 41 42 43 44 45 46 46 47 48 49 49 50 50 51 51 51 51 50 50 50 50 52
42 42 42 42 42 41 40 41 42 42 43 43 43 44 44 45 45 45 45 45 45 44 44 44 43 43 44 44 44 44 44 44 44 44 44 45 45 45 44 44 44 43 43 43 43 44 45 46 46 47 48 49 49 50 50 51 51 51 51 52 52 53 54
38 39 40 41 40 40 40 41 42 43 43 44 44 44 44 45 45 45 45 45 45 45 44 44 44 44 45 45 46 45 45 45 45 45 45 45 45 45 45 45 45 44 43 43 43 44 44 45 46 46 47 48 49 49 50 50 51 52 52 53 54 54 55
37 38 39 40 41 41 42 43 44 44 45 45 46 45 44 44 44 44 45 45 45 45 45 45 46 46 47 47 47 47 47 46 46 46 46 46 46 45 45 45 45 44 44 43 43 43 44 44 45 45 46 46 47 48 48 49 50 50 51 52 53 54 54
42 41 40 42 44 45 45 46 46 46 46 48 50 49 47 47 47 47 47 47 47 46 47 47 47 47 47 47 47 47 47 47 47 47 46 46 45 45 45 45 44 44 44 44 44 44 44 44 44 44 44 45 45 46 46 47 47 48 49 50 51 52 53
48 44 43 44 46 48 49 48 48 47 47 51 54 54 52 51 51 50 50 49 49 49 49 49 49 49 49 48 48 48 48 48 47 47 46 46 45 45 45 44 44 44 44 44 44 44 44 44 44 43 43 43 44 44 45 45 45 46 47 47 48 50 51
53 51 50 50 51 52 52 52 51 50 51 53 55 56 55 54 53 52 51 51 51 52 52 52 51 51 50 50 50 49 49 48 48 47 47 46 46 45 45 44 44 44 43 43 43 43 43 43 43 42 42 42 43 43 44 44 45 45 46 46 47 48 49
57 57 58 58 58 57 57 56 55 56 57 57 58 58 57 57 56 55 55 55 55 55 53 52 51 51 51 50 50 49 49 48 48 48 48 47 47 46 45 44 44 43 43 43 42 42 42 42 42 42 41 42 42 43 43 44 44 45 46 46 47 47 48
58 59 60 61 61 61 61 61 60 61 61 61 61 60 60 59 58 58 58 57 57 55 54 52 51 51 50 50 49 49 49 49 48 48 48 48 47 46 45 45 44 44 43 43 42 41 41 41 41 41 41 41 41 42 43 44 44 45 45 46 46 46 47

ECMWFFLT1_500_spd_045.txt.gz
Wind_Speed
15 13 12 13 13 14 15 16 16 17 17 16 14 13 13 14 16 17 17 17 18 19 20 21 22 22 22 22 22 22 22 21 21 21 20 20 20 19 19 19 18 19 19 20 20 19 19 20 22 23 23 23 24 24 23 22 22 22 22 22 21 20 21
15 14 13 13 15 16 17 18 17 17 18 18 16 14 13 14 16 17 17 17 17 18 19 21 22 22 23 23 23 23 22 22 21 21 20 19 19 18 18 18 17 18 18 19 19 19 19 19 20 21 22 22 23 23 23 22 22 22 22 22 21 21 22
14 14 14 14 16 17 17 17 16 15 17 17 16 15 14 14 16 17 17 17 17 17 18 20 21 22 23 23 23 23 23 22 21 21 20 19 18 17 17 17 16 17 17 17 17 18 18 18 19 20 21 21 22 22 23 23 24 23 23 23 23 23 23
14 14 14 15 17 16 14 15 15 14 16 15 15 15 14 14 15 16 17 17 16 17 17 18 20 21 22 22 23 23 22 22 21 20 19 18 18 16 16 15 15 15 16 16 16 17 17 18 18 20 20 21 21 21 21 22 23 23 24 24 24 24 24
14 15 16 17 18 17 15 16 16 13 14 14 14 14 15 14 14 15 16 16 16 17 17 18 18 19 20 21 22 22 21 21 20 19 19 18 17 16 15 15 14 14 14 15 15 16 16 17 18 19 20 20 21 22 22 21 21 22 23 24 25 26 26
16 16 17 18 20 21 20 19 17 14 13 14 14 14 14 15 14 14 15 16 16 17 17 18 18 19 19 20 20 20 20 20 19 19 18 17 17 16 16 15 15 14 14 14 14 15 15 16 16 17 18 19 20 21 22 23 22 22 23 24 24 25 26
16 16 18 19 21 22 22 20 18 15 14 13 13 13 14 14 14 14 14 15 16 17 17 18 18 18 19 19 19 19 19 18 18 18 17 17 16 16 15 15 15 14 14 14 15 15 15 15 15 16 16 17 18 19 20 21 22 22 22 23 24 24 25
13 15 16 18 19 20 20 20 20 18 15 14 14 14 13 13 13 14 14 14 15 16 16 17 17 18 18 18 18 18 17 17 17 17 17 16 16 15 15 14 14 14 14 14 14 14 14 14 15 15 15 15 16 16 17 18 18 19 20 21 22 24 25
13 14 15 16 17 18 19 21 23 21 18 17 17 16 14 13 13 13 13 13 14 14 15 15 16 17 17 18 18 18 17 17 16 16 16 16 16 15 14 14 13 13 12 13 13 12 12 12 13 14 14 15 15 15 15 15 16 16 17 18 19 21 23
11 12 13 15 16 17 18 21 23 22 19 18 18 17 15 14 14 14 13 13 13 14 13 14 14 15 16 17 18 18 18 18 17 17 16 16 16 15 15 14 14 13 12 12 12 11 11 10 11 11 12 13 14 14 14 14 14 14 15 16 17 18 19
10 11 12 13 14 16 17 18 19 19 18 18 18 17 15 13 13 13 14 13 13 13 12 12 13 14 16 17 18 18 19 19 18 18 17 16 15 15 15 15 14 14 13 12 12 11 11 10 10 10 10 11 12 13 13 13 13 14 14 15 15 16 16
12 12 12 13 15 16 17 17 17 17 18 18 16 15 14 11 11 12 12 12 12 12 12 13 13 14 15 15 16 16 17 17 18 18 17 17 16 15 15 14 14 14 14 13 13 12 12 11 11 11 10 11 11 12 13 13 13 13 14 15 15 15 15
12 13 14 15 16 17 17 17 16 16 17 17 16 16 14 12 11 12 12 12 11 11 12 13 14 15 15 15 15 15 15 16 16 17 17 16 16 15 15 14 14 14 14 14 13 13 13 12 12 12 12 12 12 12 13 14 14 14 15 15 16 16 16
14 15 15 16 16 16 15 16 16 16 17 18 17 16 15 14 14 13 12 11 11 10 11 12 13 13 14 13 13 14 15 15 15 15 16 16 16 16 15 15 15 14 14 14 14 14 14 14 14 14 14 14 14 14 14 15 15 16 16 16 17 17 18
15 15 16 16 16 16 15 16 17 17 19 20 19 17 17 17 15 12 11 11 12 11 11 12 13 14 14 14 15 15 16 16 16 16 16 16 16 17 17 16 16 16 16 16 16 16 16 16 16 17 17 16 16 16 16 16 17 17 17 18 18 18 19
16 16 16 17 17 18 17 17 17 17 19 20 20 19 18 18 16 14 12 13 14 15 15 15 16 17 17 17 18 18 18 18 18 17 16 17 18 18 18 18 18 18 18 18 18 18 18 19 19 19 20 20 19 19 19 18 18 18 18 19 20 20 20
17 17 17 17 16 16 16 16 16 16 17 19 21 20 19 19 18 16 15 16 17 18 18 17 18 18 18 19 20 20 20 20 20 20 20 20 19 18 19 19 20 20 20 19 19 19 20 21 21 22 22 22 22 21 21 20 20 20 19 20 20 21 21
18 19 17 16 15 14 14 14 14 14 16 18 20 21 21 21 19 18 18 21 21 19 18 19 19 19 18 19 19 19 20 20 21 22 23 23 21 19 19 20 21 21 21 21 21 21 21 22 22 23 23 23 23 23 23 22 22 22 21 21 22 22 22
17 17 16 15 15 15 14 14 14 15 17 18 19 19 20 21 21 20 21 23 22 21 20 21 20 20 20 20 19 19 19 19 20 20 20 21 22 22 21 22 23 23 24 24 24 24 23 23 23 24 24 24 24 24 24 25 25 24 24 24 24 24 24
18 18 17 17 17 17 17 17 17 18 18 19 20 20 20 21 22 22 23 23 23 23 23 23 22 21 21 21 22 22 21 21 22 21 19 19 20 22 22 23 24 25 26 27 27 27 26 26 25 25 25 26 26 26 26 26 26 27 27 27 28 28 28
22 23 22 22 21 21 21 21 21 20 19 20 20 21 23 24 25 25 26 26 26 25 25 24 23 22 22 23 25 26 26 25 25 25 24 22 21 22 23 24 25 26 28 29 30 31 30 30 29 28 28 28 28 28 28 28 28 28 29 30 30 30 31
26 26 26 26 26 26 25 25 25 24 24 24 24 25 26 26 26 25 25 26 26 27 27 26 26 26 27 29 30 30 31 30 30 30 30 29 28 27 27 28 30 31 33 34 34 35 34 34 33 33 33 33 32 31 31 31 31 32 32 32 32 32 33
30 30 30 30 30 30 29 29 29 29 29 29 28 28 28 28 27 26 26 27 28 29 30 30 31 31 32 33 32 32 33 33 33 34 34 34 35 33 32 33 35 37 37 35 34 36 37 36 37 37 36 37 37 36 36 36 36 36 36 36 36 37 37
34 34 34 34 34 34 34 34 34 34 33 32 31 31 32 32 32 32 31 31 32 34 34 35 35 35 34 33 33 33 34 34 34 35 36 36 38 37 35 35 37 38 38 34 32 34 36 36 37 38 38 38 39 38 39 40 40 41 41 41 42 42 43
38 38 37 37 37 38 38 38 38 37 37 36 35 35 35 35 36 36 35 35 35 36 37 37 37 36 35 34 34 34 35 36 37 37 37 36 36 36 36 35 36 37 38 37 37 38 39 39 40 41 41 42 42 42 43 44 45 45 45 46 47 47 48
42 42 42 41 40 40 40 40 40 40 40 39 38 38 37 37 37 37 37 36 36 37 38 39 39 38 37 36 35 36 37 38 38 38 37 36 35 35 35 35 36 37 38 39 40 42 43 43 44 45 45 45 46 46 47 48 48 48 49 50 50 51 51
43 43 43 43 42 41 41 41 41 41 41 41 40 40 39 39 38 38 38 38 38 39 39 40 40 39 38 37 37 37 38 38 38 37 37 36 35 36 36 37 38 39 39 40 41 42 43 44 44 45 46 46 46 47 47 48 49 49 50 51 52 52 52
41 42 42 42 42 41 41 41 41 41 41 42 42 41 41 40 40 40 41 42 41 41 41 41 41 41 40 40 40 39 39 40 39 39 39 38 38 38 38 39 39 40 41 41 41 42 43 43 44 45 45 46 46 47 47 48 49 49 50 51 52 52 52
37 38 39 40 41 42 42 42 43 43 43 43 42 42 41 42 42 43 43 43 43 42 42 43 43 44 44 43 42 41 41 41 41 42 42 42 41 41 41 41 41 41 41 42 43 43 44 44 44 45 45 46 46 47 47 48 49 50 51 51 52 52 52
32 32 34 35 37 39 40 41 42 42 42 42 42 42 42 42 42 42 42 42 42 43 44 45 45 45 45 45 44 42 42 42 42 42 42 42 42 42 42 42 42 42 42 43 43 44 44 45 46 46 46 47 47 47 47 48 49 50 50 51 52 53 53
30 29 29 31 32 33 35 37 38 39 40 40 40 41 41 42 41 40 40 40 41 43 44 44 44 43 43 43 42 42 42 42 42 42 42 42 42 43 43 43 43 43 43 43 43 44 44 45 46 46 47 47 47 48 48 48 48 49 50 51 51 52 52
35 33 31 31 32 32 33 34 35 36 38 39 39 40 41 41 41 41 41 42 42 43 43 43 43 42 41 41 41 42 42 43 43 43 43 43 44 44 44 44 44 44 43 43 43 44 44 45 45 45 46 47 47 48 48 48 49 49 49 50 50 51 52
45 44 42 40 39 38 39 39 38 38 39 39 40 41 42 42 43 44 44 44 44 44 45 45 44 44 43 43 44 44 45 45 45 44 44 45 45 45 45 45 45 44 44 44 43 43 44 44 44 45 45 46 47 47 48 49 49 49 50 50 51 51 52
55 54 53 51 50 48 46 45 45 44 44 44 44 45 45 45 46 47 46 47 47 47 48 48 47 46 46 46 46 46 46 46 46 46 46 47 47 47 46 45 45 45 44 44 43 43 44 44 44 45 46 46 47 47 48 48 49 49 50 50 50 51 51
60 57 56 56 58 58 56 54 53 52 51 51 52 52 51 50 50 50 50 50 50 50 50 50 50 49 49 48 48 48 48 49 49 49 49 49 48 48 47 46 45 45 44 44 44 44 44 44 44 45 46 47 47 47 47 48 48 48 48 48 48 49 49
60 58 55 54 56 59 60 60 60 59 57 55 54 53 52 51 51 52 52 52 52 51 51 51 52 53 53 53 52 52 52 52 52 52 51 50 50 49 48 47 46 45 45 45 44 44 44 44 45 45 46 46 47 47 47 47 46 46 46 46 46 47 47
59 58 56 55 55 55 57 59 60 60 60 58 57 56 55 53 53 54 55 55 55 55 55 55 56 56 56 56 55 55 54 54 53 52 51 51 50 49 48 48 46 46 45 45 45 45 45 45 45 45 45 45 45 45 45 45 44 44 44 44 44 45 45